Observation data for Clyde on 02/22/2019      Previous  Date  Next       Current Mesonet Observations  Soil Data  Daily Summary Page  Observations in Plain Language
KCL2 220600Z 10009KT 06/03 A2993 RMK A01 T00640031  RH  079%=      5-min Rain = 0
KCL2 220601Z 10008KT 06/03 A2993 RMK A01 T00640031  RH  079%=      5-min Rain = 0
KCL2 220602Z 10007KT 06/03 A2993 RMK A01 T00630030  RH  079%=      5-min Rain = 0
KCL2 220603Z 10008KT 06/03 A2993 RMK A01 T00630031  RH  079%=      5-min Rain = 0
KCL2 220604Z 11007KT 06/03 A2994 RMK A01 T00640031  RH  079%=      5-min Rain = 0
KCL2 220605Z 10007KT 06/03 A2994 RMK A01 T00640031  RH  079%=      5-min Rain = 0
KCL2 220606Z 10008KT 06/03 A2994 RMK A01 T00640031  RH  079%=      5-min Rain = 0
KCL2 220607Z 11008KT 06/03 A2994 RMK A01 T00640031  RH  079%=      5-min Rain = 0
KCL2 220608Z 10009KT 06/03 A2994 RMK A01 T00640031  RH  079%=      5-min Rain = 0
KCL2 220609Z 10008KT 06/03 A2994 RMK A01 T00640031  RH  079%=      5-min Rain = 0
KCL2 220610Z 11007KT 06/03 A2994 RMK A01 T00640031  RH  080%=      5-min Rain = 0
KCL2 220611Z 11006KT 06/03 A2994 RMK A01 T00640031  RH  080%=      5-min Rain = 0
KCL2 220612Z 12007KT 06/03 A2994 RMK A01 T00640031  RH  080%=      5-min Rain = 0
KCL2 220613Z 11007KT 06/03 A2994 RMK A01 T00640031  RH  080%=      5-min Rain = 0
KCL2 220614Z 10007KT 06/03 A2994 RMK A01 T00640031  RH  080%=      5-min Rain = 0
KCL2 220615Z 10006KT 06/03 A2994 RMK A01 T00640031  RH  080%=      5-min Rain = 0
KCL2 220616Z 11008KT 06/03 A2994 RMK A01 T00640031  RH  080%=      5-min Rain = 0
KCL2 220617Z 10006KT 06/03 A2994 RMK A01 T00630031  RH  080%=      5-min Rain = 0
KCL2 220618Z 11006KT 06/03 A2994 RMK A01 T00630031  RH  080%=      5-min Rain = 0
KCL2 220619Z 11007KT 06/03 A2994 RMK A01 T00630031  RH  080%=      5-min Rain = 0
KCL2 220620Z 11007KT 06/03 A2994 RMK A01 T00630032  RH  080%=      5-min Rain = 0
KCL2 220621Z 11008KT 06/03 A2994 RMK A01 T00630031  RH  080%=      5-min Rain = 0
KCL2 220622Z 11009KT 06/03 A2994 RMK A01 T00630031  RH  080%=      5-min Rain = 0
KCL2 220623Z 11009KT 06/03 A2994 RMK A01 T00630032  RH  080%=      5-min Rain = 0
KCL2 220624Z 10008KT 06/03 A2994 RMK A01 T00630031  RH  080%=      5-min Rain = 0
KCL2 220625Z 11007KT 06/03 A2994 RMK A01 T00630031  RH  080%=      5-min Rain = 0
KCL2 220626Z 10007KT 06/03 A2994 RMK A01 T00630032  RH  080%=      5-min Rain = 0
KCL2 220627Z 10007KT 06/03 A2994 RMK A01 T00630032  RH  080%=      5-min Rain = 0
KCL2 220628Z 11008KT 06/03 A2994 RMK A01 T00630032  RH  080%=      5-min Rain = 0
KCL2 220629Z 10007KT 06/03 A2994 RMK A01 T00630032  RH  080%=      5-min Rain = 0
KCL2 220630Z 11007KT 06/03 A2994 RMK A01 T00630032  RH  080%=      5-min Rain = 0
KCL2 220631Z 11007KT 06/03 A2994 RMK A01 T00630032  RH  080%=      5-min Rain = 0
KCL2 220632Z 10007KT 06/03 A2994 RMK A01 T00630032  RH  080%=      5-min Rain = 0
KCL2 220633Z 11007KT 06/03 A2994 RMK A01 T00630032  RH  080%=      5-min Rain = 0
KCL2 220634Z 11008KT 06/03 A2994 RMK A01 T00630032  RH  080%=      5-min Rain = 0
KCL2 220635Z 11009KT 06/03 A2994 RMK A01 T00630032  RH  080%=      5-min Rain = 0
KCL2 220636Z 11009KT 06/03 A2994 RMK A01 T00630032  RH  080%=      5-min Rain = 0
KCL2 220637Z 11009KT 06/03 A2993 RMK A01 T00630032  RH  080%=      5-min Rain = 0
KCL2 220638Z 11007KT 06/03 A2993 RMK A01 T00630032  RH  080%=      5-min Rain = 0
KCL2 220639Z 10006KT 06/03 A2993 RMK A01 T00630032  RH  081%=      5-min Rain = 0
KCL2 220640Z 11008KT 06/03 A2993 RMK A01 T00630032  RH  081%=      5-min Rain = 0
KCL2 220641Z 11008KT 06/03 A2993 RMK A01 T00630032  RH  081%=      5-min Rain = 0
KCL2 220642Z 11006KT 06/03 A2993 RMK A01 T00630032  RH  081%=      5-min Rain = 0
KCL2 220643Z 11007KT 06/03 A2993 RMK A01 T00630032  RH  081%=      5-min Rain = 0
KCL2 220644Z 10007KT 06/03 A2993 RMK A01 T00630032  RH  081%=      5-min Rain = 0
KCL2 220645Z 10007KT 06/03 A2993 RMK A01 T00630032  RH  081%=      5-min Rain = 0
KCL2 220646Z 10007KT 06/03 A2993 RMK A01 T00630032  RH  081%=      5-min Rain = 0
KCL2 220647Z 10008KT 06/03 A2993 RMK A01 T00630032  RH  081%=      5-min Rain = 0
KCL2 220648Z 10007KT 06/03 A2993 RMK A01 T00630033  RH  081%=      5-min Rain = 0
KCL2 220649Z 10005KT 06/03 A2993 RMK A01 T00630033  RH  081%=      5-min Rain = 0
KCL2 220650Z 09006KT 06/03 A2993 RMK A01 T00630033  RH  081%=      5-min Rain = 0
KCL2 220651Z 09005KT 06/03 A2993 RMK A01 T00630033  RH  081%=      5-min Rain = 0
KCL2 220652Z 09006KT 06/03 A2993 RMK A01 T00630033  RH  081%=      5-min Rain = 0
KCL2 220653Z 09006KT 06/03 A2993 RMK A01 T00630033  RH  081%=      5-min Rain = 0
KCL2 220654Z 09006KT 06/03 A2993 RMK A01 T00630033  RH  081%=      5-min Rain = 0
KCL2 220655Z 10006KT 06/03 A2993 RMK A01 T00630033  RH  081%=      5-min Rain = 0
KCL2 220656Z 09006KT 06/03 A2993 RMK A01 T00630033  RH  081%=      5-min Rain = 0
KCL2 220657Z 10005KT 06/03 A2992 RMK A01 T00630033  RH  081%=      5-min Rain = 0
KCL2 220658Z 10007KT 06/03 A2993 RMK A01 T00630033  RH  081%=      5-min Rain = 0
KCL2 220659Z 10007KT 06/03 A2992 RMK A01 T00630033  RH  081%=      5-min Rain = 0
KCL2 220700Z 10006KT 06/03 A2993 RMK A01 T00630033  RH  081%=      5-min Rain = 0
KCL2 220701Z 10006KT 06/03 A2992 RMK A01 T00630033  RH  081%=      5-min Rain = 0
KCL2 220702Z 10006KT 06/03 A2992 RMK A01 T00630033  RH  081%=      5-min Rain = 0
KCL2 220703Z 10006KT 06/03 A2992 RMK A01 T00630033  RH  081%=      5-min Rain = 0
KCL2 220704Z 10007KT 06/03 A2992 RMK A01 T00640033  RH  081%=      5-min Rain = 0
KCL2 220705Z 10006KT 06/03 A2992 RMK A01 T00640034  RH  081%=      5-min Rain = 0
KCL2 220706Z 10006KT 06/03 A2992 RMK A01 T00640034  RH  081%=      5-min Rain = 0
KCL2 220707Z 10007KT 06/03 A2992 RMK A01 T00640034  RH  081%=      5-min Rain = 0
KCL2 220708Z 10007KT 06/03 A2992 RMK A01 T00640034  RH  081%=      5-min Rain = 0
KCL2 220709Z 10008KT 06/03 A2992 RMK A01 T00640034  RH  081%=      5-min Rain = 0
KCL2 220710Z 10007KT 06/03 A2992 RMK A01 T00640034  RH  081%=      5-min Rain = 0
KCL2 220711Z 10007KT 06/03 A2992 RMK A01 T00640034  RH  081%=      5-min Rain = 0
KCL2 220712Z 10008KT 06/03 A2992 RMK A01 T00640034  RH  081%=      5-min Rain = 0
KCL2 220713Z 09006KT 06/03 A2992 RMK A01 T00640034  RH  081%=      5-min Rain = 0
KCL2 220714Z 10008KT 06/03 A2992 RMK A01 T00640034  RH  081%=      5-min Rain = 0
KCL2 220715Z 10009KT 06/04 A2992 RMK A01 T00640035  RH  081%=      5-min Rain = 0
KCL2 220716Z 10009KT 07/04 A2992 RMK A01 T00650035  RH  081%=      5-min Rain = 0
KCL2 220717Z 11008KT 07/04 A2992 RMK A01 T00650035  RH  081%=      5-min Rain = 0
KCL2 220718Z 11008KT 07/04 A2993 RMK A01 T00650035  RH  081%=      5-min Rain = 0
KCL2 220719Z 11007KT 07/04 A2993 RMK A01 T00650035  RH  081%=      5-min Rain = 0
KCL2 220720Z 11008KT 07/04 A2993 RMK A01 T00650035  RH  081%=      5-min Rain = 0
KCL2 220721Z 10009KT 07/04 A2992 RMK A01 T00650036  RH  082%=      5-min Rain = 0
KCL2 220722Z 10009KT 07/04 A2992 RMK A01 T00650036  RH  082%=      5-min Rain = 0
KCL2 220723Z 10011KT 07/04 A2992 RMK A01 T00650036  RH  082%=      5-min Rain = 0
KCL2 220724Z 10010KT 07/04 A2992 RMK A01 T00650036  RH  082%=      5-min Rain = 0
KCL2 220725Z 10009KT 07/04 A2992 RMK A01 T00650036  RH  082%=      5-min Rain = 0
KCL2 220726Z 10009KT 07/04 A2992 RMK A01 T00650036  RH  082%=      5-min Rain = 0
KCL2 220727Z 10009KT 07/04 A2992 RMK A01 T00650036  RH  082%=      5-min Rain = 0
KCL2 220728Z 10009KT 07/04 A2992 RMK A01 T00650036  RH  082%=      5-min Rain = 0
KCL2 220729Z 09010KT 07/04 A2991 RMK A01 T00650036  RH  082%=      5-min Rain = 0
KCL2 220730Z 09010KT 07/04 A2991 RMK A01 T00650037  RH  082%=      5-min Rain = 0
KCL2 220731Z 09010KT 07/04 A2991 RMK A01 T00650037  RH  082%=      5-min Rain = 0
KCL2 220732Z 10009KT 07/04 A2991 RMK A01 T00650037  RH  082%=      5-min Rain = 0
KCL2 220733Z 09008KT 07/04 A2991 RMK A01 T00650037  RH  082%=      5-min Rain = 0
KCL2 220734Z 10009KT 07/04 A2991 RMK A01 T00650037  RH  082%=      5-min Rain = 0
KCL2 220735Z 10009KT 07/04 A2991 RMK A01 T00650037  RH  082%=      5-min Rain = 0
KCL2 220736Z 09009KT 07/04 A2991 RMK A01 T00650037  RH  082%=      5-min Rain = 0
KCL2 220737Z 10010KT 07/04 A2991 RMK A01 T00650037  RH  083%=      5-min Rain = 0
KCL2 220738Z 10009KT 07/04 A2991 RMK A01 T00650037  RH  083%=      5-min Rain = 0
KCL2 220739Z 11010KT 07/04 A2991 RMK A01 T00650037  RH  083%=      5-min Rain = 0
KCL2 220740Z 10009KT 06/04 A2991 RMK A01 T00640037  RH  083%=      5-min Rain = 0
KCL2 220741Z 10009KT 07/04 A2991 RMK A01 T00650038  RH  083%=      5-min Rain = 0
KCL2 220742Z 10009KT 07/04 A2991 RMK A01 T00650038  RH  083%=      5-min Rain = 0
KCL2 220743Z 10009KT 07/04 A2991 RMK A01 T00650038  RH  083%=      5-min Rain = 0
KCL2 220744Z 10010KT 07/04 A2991 RMK A01 T00650038  RH  083%=      5-min Rain = 0
KCL2 220745Z 10011KT 06/04 A2991 RMK A01 T00640038  RH  083%=      5-min Rain = 0
KCL2 220746Z 10009KT 07/04 A2991 RMK A01 T00650038  RH  083%=      5-min Rain = 0
KCL2 220747Z 11009KT 07/04 A2991 RMK A01 T00650038  RH  083%=      5-min Rain = 0
KCL2 220748Z 11010KT 07/04 A2991 RMK A01 T00650039  RH  083%=      5-min Rain = 0
KCL2 220749Z 11009KT 07/04 A2991 RMK A01 T00650038  RH  083%=      5-min Rain = 0
KCL2 220750Z 12009KT 07/04 A2991 RMK A01 T00650038  RH  083%=      5-min Rain = 0
KCL2 220751Z 11009KT 07/04 A2991 RMK A01 T00650039  RH  084%=      5-min Rain = 0
KCL2 220752Z 11011KT 07/04 A2991 RMK A01 T00650039  RH  084%=      5-min Rain = 0
KCL2 220753Z 11011KT 07/04 A2991 RMK A01 T00650039  RH  084%=      5-min Rain = 0
KCL2 220754Z 11009KT 07/04 A2991 RMK A01 T00650039  RH  084%=      5-min Rain = 0
KCL2 220755Z 11010KT 07/04 A2991 RMK A01 T00650039  RH  084%=      5-min Rain = 0
KCL2 220756Z 10009KT 07/04 A2991 RMK A01 T00650039  RH  084%=      5-min Rain = 0
KCL2 220757Z 11009KT 06/04 A2991 RMK A01 T00640039  RH  084%=      5-min Rain = 0
KCL2 220758Z 10008KT 06/04 A2991 RMK A01 T00640039  RH  084%=      5-min Rain = 0
KCL2 220759Z 11010KT 07/04 A2991 RMK A01 T00650039  RH  084%=      5-min Rain = 0
KCL2 220800Z 10011KT 07/04 A2991 RMK A01 T00650040  RH  084%=      5-min Rain = 0
KCL2 220801Z 10009KT 06/04 A2991 RMK A01 T00640040  RH  084%=      5-min Rain = 0
KCL2 220802Z 10008KT 07/04 A2991 RMK A01 T00650040  RH  084%=      5-min Rain = 0
KCL2 220803Z 10009KT 06/04 A2991 RMK A01 T00640040  RH  084%=      5-min Rain = 0
KCL2 220804Z 10011KT 07/04 A2991 RMK A01 T00650041  RH  085%=      5-min Rain = 0
KCL2 220805Z 10011KT 07/04 A2991 RMK A01 T00650041  RH  085%=      5-min Rain = 0
KCL2 220806Z 10010KT 07/04 A2991 RMK A01 T00650041  RH  085%=      5-min Rain = 0
KCL2 220807Z 10012KT 07/04 A2991 RMK A01 T00650041  RH  085%=      5-min Rain = 0
KCL2 220808Z 10010KT 07/04 A2991 RMK A01 T00650041  RH  085%=      5-min Rain = 0
KCL2 220809Z 10010KT 06/04 A2991 RMK A01 T00640041  RH  085%=      5-min Rain = 0
KCL2 220810Z 11011KT 07/04 A2991 RMK A01 T00650041  RH  085%=      5-min Rain = 0
KCL2 220811Z 11010KT 07/04 A2991 RMK A01 T00650042  RH  085%=      5-min Rain = 0
KCL2 220812Z 11009KT 07/04 A2991 RMK A01 T00650042  RH  085%=      5-min Rain = 0
KCL2 220813Z 11009KT 07/04 A2991 RMK A01 T00650042  RH  085%=      5-min Rain = 0
KCL2 220814Z 11011KT 07/04 A2991 RMK A01 T00650042  RH  085%=      5-min Rain = 0
KCL2 220815Z 11010KT 07/04 A2991 RMK A01 T00650043  RH  086%=      5-min Rain = 0
KCL2 220816Z 12011KT 07/04 A2991 RMK A01 T00650043  RH  086%=      5-min Rain = 0
KCL2 220817Z 11010KT 07/04 A2991 RMK A01 T00650043  RH  086%=      5-min Rain = 0
KCL2 220818Z 11010KT 07/04 A2991 RMK A01 T00650043  RH  086%=      5-min Rain = 0
KCL2 220819Z 11011KT 07/04 A2991 RMK A01 T00650043  RH  086%=      5-min Rain = 0
KCL2 220820Z 11010KT 07/04 A2991 RMK A01 T00650043  RH  086%=      5-min Rain = 0
KCL2 220821Z 11011KT 07/04 A2991 RMK A01 T00650043  RH  086%=      5-min Rain = 0
KCL2 220822Z 11012KT 07/04 A299 RMK A01 T00650043  RH  086%=      5-min Rain = 0
KCL2 220823Z 11011KT 07/04 A299 RMK A01 T00650044  RH  086%=      5-min Rain = 0
KCL2 220824Z 11012KT 07/04 A299 RMK A01 T00650044  RH  086%=      5-min Rain = 0
KCL2 220825Z 11012KT 07/04 A299 RMK A01 T00650044  RH  087%=      5-min Rain = 0
KCL2 220826Z 11009KT 07/05 A299 RMK A01 T00650045  RH  087%=      5-min Rain = 0
KCL2 220827Z 11011KT 07/05 A299 RMK A01 T00650045  RH  087%=      5-min Rain = 0
KCL2 220828Z 11011KT 07/05 A299 RMK A01 T00650045  RH  087%=      5-min Rain = 0
KCL2 220829Z 11011KT 07/05 A299 RMK A01 T00650046  RH  087%=      5-min Rain = 0
KCL2 220830Z 11012KT 07/05 A299 RMK A01 T00650046  RH  088%=      5-min Rain = 0
KCL2 220831Z 11011KT 07/05 A299 RMK A01 T00650046  RH  088%=      5-min Rain = 0
KCL2 220832Z 11009KT 07/05 A2989 RMK A01 T00650047  RH  088%=      5-min Rain = 0
KCL2 220833Z 11010KT 07/05 A2989 RMK A01 T00650046  RH  088%=      5-min Rain = 0
KCL2 220834Z 11010KT 07/05 A2989 RMK A01 T00650047  RH  088%=      5-min Rain = 0
KCL2 220835Z 11010KT 07/05 A2989 RMK A01 T00650047  RH  088%=      5-min Rain = 0
KCL2 220836Z 10010KT 07/05 A2989 RMK A01 T00650047  RH  088%=      5-min Rain = 0
KCL2 220837Z 11012KT 07/05 A2989 RMK A01 T00650048  RH  089%=      5-min Rain = 0
KCL2 220838Z 11012KT 07/05 A2989 RMK A01 T00650048  RH  089%=      5-min Rain = 0
KCL2 220839Z 10009KT 07/05 A2989 RMK A01 T00650048  RH  089%=      5-min Rain = 0
KCL2 220840Z 11012KT 07/05 A2989 RMK A01 T00650049  RH  089%=      5-min Rain = 0
KCL2 220841Z 10013KT 07/05 A2989 RMK A01 T00650049  RH  090%=      5-min Rain = 0
KCL2 220842Z 10011KT 07/05 A2988 RMK A01 T00650050  RH  090%=      5-min Rain = 0
KCL2 220843Z 10012KT 06/05 A2988 RMK A01 T00640049  RH  090%=      5-min Rain = 0
KCL2 220844Z 10010KT 06/05 A2988 RMK A01 T00640049  RH  090%=      5-min Rain = 0
KCL2 220845Z 11011KT 07/05 A2988 RMK A01 T00650050  RH  090%=      5-min Rain = 0
KCL2 220846Z 10012KT 07/05 A2988 RMK A01 T00650050  RH  090%=      5-min Rain = 0
KCL2 220847Z 10010KT 07/05 A2988 RMK A01 T00650050  RH  090%=      5-min Rain = 0
KCL2 220848Z 10009KT 06/05 A2988 RMK A01 T00640050  RH  091%=      5-min Rain = 0
KCL2 220849Z 11011KT 06/05 A2988 RMK A01 T00640050  RH  091%=      5-min Rain = 0
KCL2 220850Z 10010KT 06/05 A2988 RMK A01 T00640050  RH  091%=      5-min Rain = 0
KCL2 220851Z 11012KT 06/05 A2988 RMK A01 T00640050  RH  091%=      5-min Rain = 0
KCL2 220852Z 10011KT 06/05 A2987 RMK A01 T00640051  RH  091%=      5-min Rain = 0
KCL2 220853Z 10013KT 06/05 A2987 RMK A01 T00640051  RH  091%=      5-min Rain = 0
KCL2 220854Z 11012KT 06/05 A2987 RMK A01 T00640051  RH  092%=      5-min Rain = 0
KCL2 220855Z 10012KT 06/05 A2988 RMK A01 T00640051  RH  092%=      5-min Rain = 0
KCL2 220856Z 11011KT 06/05 A2988 RMK A01 T00640052  RH  092%=      5-min Rain = 0
KCL2 220857Z 11012KT 06/05 A2988 RMK A01 T00640052  RH  092%=      5-min Rain = 0
KCL2 220858Z 10011KT 06/05 A2988 RMK A01 T00640052  RH  092%=      5-min Rain = 0
KCL2 220859Z 10009KT 06/05 A2988 RMK A01 T00640052  RH  092%=      5-min Rain = 0
KCL2 220900Z 11012KT 06/05 A2988 RMK A01 T00640052  RH  092%=      5-min Rain = 0
KCL2 220901Z 11011KT 06/05 A2988 RMK A01 T00640052  RH  092%=      5-min Rain = 0
KCL2 220902Z 11012KT 06/05 A2988 RMK A01 T00640052  RH  092%=      5-min Rain = 0
KCL2 220903Z 11012KT 06/05 A2988 RMK A01 T00630052  RH  092%=      5-min Rain = 0
KCL2 220904Z 11012KT 06/05 A2988 RMK A01 T00640052  RH  092%=      5-min Rain = 0
KCL2 220905Z 11010KT 06/05 A2988 RMK A01 T00640053  RH  093%=      5-min Rain = 0
KCL2 220906Z 11010KT 06/05 A2988 RMK A01 T00640053  RH  093%=      5-min Rain = 0
KCL2 220907Z 11010KT 06/05 A2988 RMK A01 T00640053  RH  093%=      5-min Rain = 0
KCL2 220908Z 11011KT 06/05 A2988 RMK A01 T00640053  RH  093%=      5-min Rain = 0
KCL2 220909Z 11011KT 06/05 A2987 RMK A01 T00640053  RH  093%=      5-min Rain = 0
KCL2 220910Z 11011KT 06/05 A2987 RMK A01 T00640053  RH  093%=      5-min Rain = 0
KCL2 220911Z 11012KT 06/05 A2987 RMK A01 T00630053  RH  093%=      5-min Rain = 0
KCL2 220912Z 10013KT 06/05 A2987 RMK A01 T00630053  RH  093%=      5-min Rain = 0
KCL2 220913Z 10012KT 06/05 A2987 RMK A01 T00630053  RH  094%=      5-min Rain = 0
KCL2 220914Z 10010KT 06/05 A2987 RMK A01 T00630053  RH  094%=      5-min Rain = 0
KCL2 220915Z 12012KT 06/05 A2988 RMK A01 T00630054  RH  094%=      5-min Rain = 0
KCL2 220916Z 11010KT 06/05 A2988 RMK A01 T00630054  RH  094%=      5-min Rain = 0
KCL2 220917Z 11011KT 06/05 A2988 RMK A01 T00630054  RH  094%=      5-min Rain = 0
KCL2 220918Z 11012KT 06/05 A2988 RMK A01 T00630054  RH  094%=      5-min Rain = 0
KCL2 220919Z 11010KT 06/05 A2988 RMK A01 T00630054  RH  094%=      5-min Rain = 0
KCL2 220920Z 10010KT 06/05 A2988 RMK A01 T00630054  RH  094%=      5-min Rain = 0
KCL2 220921Z 10011KT 06/05 A2988 RMK A01 T00630054  RH  094%=      5-min Rain = 0
KCL2 220922Z 10009KT 06/06 A2988 RMK A01 T00630055  RH  094%=      5-min Rain = 0
KCL2 220923Z 11012KT 06/06 A2988 RMK A01 T00630055  RH  095%=      5-min Rain = 0
KCL2 220924Z 11013KT 06/06 A2988 RMK A01 T00630055  RH  095%=      5-min Rain = 0
KCL2 220925Z 11013KT 06/06 A2988 RMK A01 T00630055  RH  095%=      5-min Rain = 0
KCL2 220926Z 11012KT 06/06 A2987 RMK A01 T00620055  RH  095%=      5-min Rain = 0
KCL2 220927Z 11010KT 06/06 A2987 RMK A01 T00620055  RH  095%=      5-min Rain = 0
KCL2 220928Z 11013KT 06/06 A2988 RMK A01 T00620056  RH  096%=      5-min Rain = 0
KCL2 220929Z 12013KT 06/06 A2988 RMK A01 T00620056  RH  096%=      5-min Rain = 0
KCL2 220930Z 11011KT 06/06 A2988 RMK A01 T00620056  RH  096%=      5-min Rain = 0
KCL2 220931Z 11011KT 06/06 A2988 RMK A01 T00630056  RH  096%=      5-min Rain = 0
KCL2 220932Z 11010KT 06/06 A2988 RMK A01 T00620056  RH  096%=      5-min Rain = 0
KCL2 220933Z 11010KT 06/06 A2988 RMK A01 T00620056  RH  096%=      5-min Rain = 0
KCL2 220934Z 11011KT 06/06 A2988 RMK A01 T00620056  RH  096%=      5-min Rain = 0
KCL2 220935Z 11012KT 06/06 A2988 RMK A01 T00620056  RH  096%=      5-min Rain = 0
KCL2 220936Z 11010KT 06/06 A2988 RMK A01 T00620056  RH  096%=      5-min Rain = 0
KCL2 220937Z 10009KT 06/06 A2988 RMK A01 T00620056  RH  096%=      5-min Rain = 0
KCL2 220938Z 11010KT 06/06 A2988 RMK A01 T00620057  RH  096%=      5-min Rain = 0
KCL2 220939Z 12009KT 06/06 A2988 RMK A01 T00620057  RH  096%=      5-min Rain = 0
KCL2 220940Z 12008KT 06/06 A2988 RMK A01 T00620057  RH  096%=      5-min Rain = 0
KCL2 220941Z 12008KT 06/06 A2989 RMK A01 T00620057  RH  097%=      5-min Rain = 0
KCL2 220942Z 11007KT 06/06 A2989 RMK A01 T00620057  RH  097%=      5-min Rain = 0
KCL2 220943Z 11008KT 06/06 A2989 RMK A01 T00620057  RH  097%=      5-min Rain = 0
KCL2 220944Z 12007KT 06/06 A2989 RMK A01 T00620057  RH  097%=      5-min Rain = 0
KCL2 220945Z 12009KT 06/06 A2989 RMK A01 T00620057  RH  097%=      5-min Rain = 0
KCL2 220946Z 13008KT 06/06 A299 RMK A01 T00620057  RH  097%=      5-min Rain = 0
KCL2 220947Z 13007KT 06/06 A2989 RMK A01 T00620057  RH  097%=      5-min Rain = 0
KCL2 220948Z 12007KT 06/06 A2989 RMK A01 T00620057  RH  097%=      5-min Rain = 0
KCL2 220949Z 12010KT 06/06 A2989 RMK A01 T00620057  RH  097%=      5-min Rain = 0
KCL2 220950Z 13009KT 06/06 A2989 RMK A01 T00620058  RH  097%=      5-min Rain = 0
KCL2 220951Z 12009KT 06/06 A299 RMK A01 T00620058  RH  097%=      5-min Rain = 0
KCL2 220952Z 13011KT 06/06 A299 RMK A01 T00620058  RH  097%=      5-min Rain = 0
KCL2 220953Z 13009KT 06/06 A2991 RMK A01 T00620058  RH  097%=      5-min Rain = 0
KCL2 220954Z 14008KT 06/06 A2991 RMK A01 T00620058  RH  097%=      5-min Rain = 0
KCL2 220955Z 13009KT 06/06 A2991 RMK A01 T00620057  RH  097%=      5-min Rain = 0
KCL2 220956Z 13010KT 06/06 A299 RMK A01 T00620058  RH  097%=      5-min Rain = 0
KCL2 220957Z 13010KT 06/06 A2991 RMK A01 T00620058  RH  097%=      5-min Rain = 0
KCL2 220958Z 13010KT 06/06 A2991 RMK A01 T00620058  RH  097%=      5-min Rain = 0
KCL2 220959Z 13009KT 06/06 A2991 RMK A01 T00620058  RH  097%=      5-min Rain = 0
KCL2 221000Z 13009KT 06/06 A2991 RMK A01 T00620059  RH  097%=      5-min Rain = 0
KCL2 221001Z 13009KT 06/06 A2991 RMK A01 T00620059  RH  098%=      5-min Rain = 0
KCL2 221002Z 13011KT 06/06 A2991 RMK A01 T00620059  RH  098%=      5-min Rain = 0
KCL2 221003Z 14009KT 06/06 A2991 RMK A01 T00620059  RH  098%=      5-min Rain = 0
KCL2 221004Z 13009KT 06/06 A2991 RMK A01 T00620059  RH  098%=      5-min Rain = 0
KCL2 221005Z 13009KT 06/06 A2991 RMK A01 T00620059  RH  098%=      5-min Rain = 0
KCL2 221006Z 13009KT 06/06 A2991 RMK A01 T00620059  RH  098%=      5-min Rain = 0
KCL2 221007Z 14008KT 06/06 A2991 RMK A01 T00620059  RH  098%=      5-min Rain = 0
KCL2 221008Z 13005KT 06/06 A2991 RMK A01 T00620059  RH  098%=      5-min Rain = 0
KCL2 221009Z 13006KT 06/06 A2991 RMK A01 T00620059  RH  098%=      5-min Rain = 0
KCL2 221010Z 13008KT 06/06 A2991 RMK A01 T00620059  RH  098%=      5-min Rain = 0
KCL2 221011Z 14006KT 06/06 A2991 RMK A01 T00620059  RH  098%=      5-min Rain = 0
KCL2 221012Z 13007KT 06/06 A2991 RMK A01 T00620059  RH  098%=      5-min Rain = 0
KCL2 221013Z 13008KT 06/06 A2991 RMK A01 T00620059  RH  098%=      5-min Rain = 0
KCL2 221014Z 13008KT 06/06 A2991 RMK A01 T00620059  RH  098%=      5-min Rain = 0
KCL2 221015Z 14006KT 06/06 A2991 RMK A01 T00620059  RH  098%=      5-min Rain = 0
KCL2 221016Z 14004KT 06/06 A2991 RMK A01 T00620059  RH  098%=      5-min Rain = 0
KCL2 221017Z 14005KT 06/06 A2991 RMK A01 T00620060  RH  098%=      5-min Rain = 0
KCL2 221018Z 14004KT 06/06 A2991 RMK A01 T00620060  RH  098%=      5-min Rain = 0
KCL2 221019Z 14004KT 06/06 A2991 RMK A01 T00620060  RH  098%=      5-min Rain = 0
KCL2 221020Z 14004KT 06/06 A2991 RMK A01 T00620060  RH  098%=      5-min Rain = 0
KCL2 221021Z 13003KT 06/06 A2991 RMK A01 T00620060  RH  098%=      5-min Rain = 0
KCL2 221022Z 14002KT 06/06 A2991 RMK A01 T00620060  RH  098%=      5-min Rain = 0
KCL2 221023Z 14002KT 06/06 A2991 RMK A01 T00620060  RH  098%=      5-min Rain = 0
KCL2 221024Z 13003KT 06/06 A2991 RMK A01 T00620060  RH  098%=      5-min Rain = 0
KCL2 221025Z 12004KT 06/06 A2991 RMK A01 T00620060  RH  098%=      5-min Rain = 0
KCL2 221026Z 13004KT 06/06 A2991 RMK A01 T00630060  RH  098%=      5-min Rain = 0
KCL2 221027Z 13003KT 06/06 A2991 RMK A01 T00630061  RH  098%=      5-min Rain = 0
KCL2 221028Z 14003KT 06/06 A2991 RMK A01 T00630060  RH  098%=      5-min Rain = 0
KCL2 221029Z 15002KT 06/06 A2991 RMK A01 T00630060  RH  098%=      5-min Rain = 0
KCL2 221030Z 12001KT 06/06 A2991 RMK A01 T00630060  RH  098%=      5-min Rain = 0
KCL2 221031Z 11002KT 06/06 A2991 RMK A01 T00630061  RH  098%=      5-min Rain = 0
KCL2 221032Z 13003KT 06/06 A2991 RMK A01 T00630060  RH  098%=      5-min Rain = 0
KCL2 221033Z 12003KT 06/06 A2991 RMK A01 T00630061  RH  098%=      5-min Rain = 0
KCL2 221034Z 12002KT 06/06 A2991 RMK A01 T00630060  RH  098%=      5-min Rain = 0
KCL2 221035Z 12003KT 06/06 A2991 RMK A01 T00630060  RH  098%=      5-min Rain = 0
KCL2 221036Z 11004KT 06/06 A2991 RMK A01 T00630060  RH  098%=      5-min Rain = 0
KCL2 221037Z 11004KT 06/06 A2991 RMK A01 T00630061  RH  098%=      5-min Rain = 0
KCL2 221038Z 12003KT 06/06 A2991 RMK A01 T00630060  RH  098%=      5-min Rain = 0
KCL2 221039Z 12003KT 06/06 A2991 RMK A01 T00630060  RH  098%=      5-min Rain = 0
KCL2 221040Z 12004KT 06/06 A2991 RMK A01 T00630061  RH  098%=      5-min Rain = 0
KCL2 221041Z 14003KT 06/06 A2991 RMK A01 T00630061  RH  098%=      5-min Rain = 0
KCL2 221042Z 15004KT 06/06 A2991 RMK A01 T00630060  RH  098%=      5-min Rain = 0
KCL2 221043Z 14004KT 06/06 A2991 RMK A01 T00630061  RH  098%=      5-min Rain = 0
KCL2 221044Z 14003KT 06/06 A2991 RMK A01 T00630061  RH  098%=      5-min Rain = 0
KCL2 221045Z 14003KT 06/06 A2991 RMK A01 T00630061  RH  098%=      5-min Rain = 0
KCL2 221046Z 14003KT 06/06 A2991 RMK A01 T00630061  RH  099%=      5-min Rain = 0
KCL2 221047Z 15003KT 06/06 A2992 RMK A01 T00630061  RH  098%=      5-min Rain = 0
KCL2 221048Z 15003KT 06/06 A2992 RMK A01 T00630061  RH  099%=      5-min Rain = 0
KCL2 221049Z 15006KT 06/06 A2992 RMK A01 T00630061  RH  099%=      5-min Rain = 0
KCL2 221050Z 15005KT 06/06 A2992 RMK A01 T00630061  RH  099%=      5-min Rain = 0
KCL2 221051Z 15003KT 06/06 A2992 RMK A01 T00630061  RH  099%=      5-min Rain = 0
KCL2 221052Z 14004KT 06/06 A2992 RMK A01 T00640061  RH  099%=      5-min Rain = 0
KCL2 221053Z 14003KT 06/06 A2992 RMK A01 T00630061  RH  099%=      5-min Rain = 0
KCL2 221054Z 15004KT 06/06 A2992 RMK A01 T00630061  RH  098%=      5-min Rain = 0
KCL2 221055Z 15004KT 06/06 A2992 RMK A01 T00640062  RH  099%=      5-min Rain = 0
KCL2 221056Z 12003KT 06/06 A2992 RMK A01 T00640061  RH  098%=      5-min Rain = 0
KCL2 221057Z 12006KT 06/06 A2992 RMK A01 T00640061  RH  098%=      5-min Rain = 0
KCL2 221058Z 12005KT 06/06 A2991 RMK A01 T00640061  RH  099%=      5-min Rain = 0
KCL2 221059Z 11005KT 06/06 A2991 RMK A01 T00640062  RH  099%=      5-min Rain = 0
KCL2 221100Z 11005KT 06/06 A2991 RMK A01 T00640062  RH  099%=      5-min Rain = 0
KCL2 221101Z 12004KT 06/06 A2991 RMK A01 T00640061  RH  099%=      5-min Rain = 0
KCL2 221102Z 13003KT 06/06 A2991 RMK A01 T00640061  RH  099%=      5-min Rain = 0
KCL2 221103Z 13004KT 06/06 A2992 RMK A01 T00640062  RH  099%=      5-min Rain = 0
KCL2 221104Z 14006KT 06/06 A2992 RMK A01 T00640062  RH  099%=      5-min Rain = 0
KCL2 221105Z 13005KT 06/06 A2992 RMK A01 T00640062  RH  099%=      5-min Rain = 0
KCL2 221106Z 14006KT 06/06 A2992 RMK A01 T00640062  RH  099%=      5-min Rain = 0
KCL2 221107Z 14005KT 06/06 A2992 RMK A01 T00640062  RH  099%=      5-min Rain = 0
KCL2 221108Z 15004KT 06/06 A2992 RMK A01 T00640062  RH  099%=      5-min Rain = 0
KCL2 221109Z 13004KT 07/06 A2992 RMK A01 T00650063  RH  099%=      5-min Rain = 0
KCL2 221110Z 14004KT 06/06 A2992 RMK A01 T00640062  RH  099%=      5-min Rain = 0
KCL2 221111Z 16005KT 06/06 A2992 RMK A01 T00640062  RH  099%=      5-min Rain = 0
KCL2 221112Z 15005KT 06/06 A2992 RMK A01 T00640062  RH  099%=      5-min Rain = 0
KCL2 221113Z 15005KT 06/06 A2993 RMK A01 T00640062  RH  099%=      5-min Rain = 0
KCL2 221114Z 15006KT 06/06 A2993 RMK A01 T00640063  RH  099%=      5-min Rain = 0
KCL2 221115Z 14005KT 06/06 A2993 RMK A01 T00640062  RH  099%=      5-min Rain = 0
KCL2 221116Z 15004KT 06/06 A2993 RMK A01 T00640062  RH  099%=      5-min Rain = 0
KCL2 221117Z 15005KT 06/06 A2993 RMK A01 T00640062  RH  099%=      5-min Rain = 0
KCL2 221118Z 14005KT 06/06 A2993 RMK A01 T00640063  RH  099%=      5-min Rain = 0
KCL2 221119Z 14004KT 06/06 A2993 RMK A01 T00640063  RH  099%=      5-min Rain = 0
KCL2 221120Z 14004KT 06/06 A2993 RMK A01 T00640063  RH  099%=      5-min Rain = 0
KCL2 221121Z 14005KT 06/06 A2993 RMK A01 T00640063  RH  099%=      5-min Rain = 0
KCL2 221122Z 15004KT 06/06 A2993 RMK A01 T00640063  RH  099%=      5-min Rain = 0
KCL2 221123Z 13004KT 06/06 A2993 RMK A01 T00640063  RH  099%=      5-min Rain = 0
KCL2 221124Z 14004KT 06/06 A2993 RMK A01 T00640063  RH  099%=      5-min Rain = 0
KCL2 221125Z 14004KT 06/06 A2993 RMK A01 T00640063  RH  099%=      5-min Rain = 0
KCL2 221126Z 15004KT 06/06 A2993 RMK A01 T00640063  RH  099%=      5-min Rain = 0
KCL2 221127Z 14005KT 06/06 A2994 RMK A01 T00640063  RH  099%=      5-min Rain = 0
KCL2 221128Z 13004KT 06/06 A2994 RMK A01 T00640063  RH  099%=      5-min Rain = 0
KCL2 221129Z 14004KT 06/06 A2994 RMK A01 T00640063  RH  099%=      5-min Rain = 0
KCL2 221130Z 14004KT 06/06 A2994 RMK A01 T00640063  RH  099%=      5-min Rain = 0
KCL2 221131Z 14005KT 06/06 A2994 RMK A01 T00640063  RH  099%=      5-min Rain = 0
KCL2 221132Z 13005KT 06/06 A2994 RMK A01 T00640063  RH  099%=      5-min Rain = 0
KCL2 221133Z 13006KT 06/06 A2994 RMK A01 T00640063  RH  099%=      5-min Rain = 0
KCL2 221134Z 13004KT 06/06 A2993 RMK A01 T00640063  RH  099%=      5-min Rain = 0
KCL2 221135Z 12004KT 06/06 A2993 RMK A01 T00640063  RH  099%=      5-min Rain = 0
KCL2 221136Z 12005KT 06/06 A2993 RMK A01 T00640063  RH  099%=      5-min Rain = 0
KCL2 221137Z 12006KT 06/06 A2993 RMK A01 T00640063  RH  099%=      5-min Rain = 0
KCL2 221138Z 12006KT 06/06 A2993 RMK A01 T00640063  RH  099%=      5-min Rain = 0
KCL2 221139Z 13006KT 06/06 A2993 RMK A01 T00640063  RH  099%=      5-min Rain = 0
KCL2 221140Z 13007KT 06/06 A2993 RMK A01 T00640063  RH  099%=      5-min Rain = 0
KCL2 221141Z 12006KT 06/06 A2993 RMK A01 T00640063  RH  099%=      5-min Rain = 0
KCL2 221142Z 12005KT 06/06 A2993 RMK A01 T00640063  RH  099%=      5-min Rain = 0
KCL2 221143Z 11005KT 06/06 A2993 RMK A01 T00640063  RH  099%=      5-min Rain = 0
KCL2 221144Z 12006KT 06/06 A2993 RMK A01 T00640063  RH  099%=      5-min Rain = 0
KCL2 221145Z 13005KT 06/06 A2994 RMK A01 T00640063  RH  099%=      5-min Rain = 0
KCL2 221146Z 12005KT 06/06 A2994 RMK A01 T00640063  RH  099%=      5-min Rain = 0
KCL2 221147Z 12006KT 06/06 A2994 RMK A01 T00640063  RH  100%=      5-min Rain = 0
KCL2 221148Z 12005KT 06/06 A2994 RMK A01 T00630063  RH  099%=      5-min Rain = 0
KCL2 221149Z 12005KT 06/06 A2994 RMK A01 T00640063  RH  100%=      5-min Rain = 0
KCL2 221150Z 13005KT 06/06 A2994 RMK A01 T00640063  RH  100%=      5-min Rain = 0
KCL2 221151Z 13004KT 06/06 A2994 RMK A01 T00640063  RH  100%=      5-min Rain = 0
KCL2 221152Z 12005KT 06/06 A2994 RMK A01 T00640063  RH  100%=      5-min Rain = 0
KCL2 221153Z 13005KT 06/06 A2994 RMK A01 T00640063  RH  100%=      5-min Rain = 0
KCL2 221154Z 13006KT 06/06 A2994 RMK A01 T00640063  RH  100%=      5-min Rain = 0
KCL2 221155Z 13005KT 06/06 A2994 RMK A01 T00640063  RH  100%=      5-min Rain = 0
KCL2 221156Z 12005KT 06/06 A2994 RMK A01 T00640063  RH  100%=      5-min Rain = 0
KCL2 221157Z 12004KT 06/06 A2994 RMK A01 T00640063  RH  100%=      5-min Rain = 0
KCL2 221158Z 12004KT 06/06 A2994 RMK A01 T00640063  RH  100%=      5-min Rain = 0
KCL2 221159Z 13004KT 06/06 A2994 RMK A01 T00640063  RH  100%=      5-min Rain = 0
KCL2 221200Z 13004KT 06/06 A2994 RMK A01 T00640063  RH  100%=      5-min Rain = 0
KCL2 221201Z 13004KT 06/06 A2994 RMK A01 T00640063  RH  100%=      5-min Rain = 0
KCL2 221202Z 12006KT 06/06 A2994 RMK A01 T00640063  RH  100%=      5-min Rain = 0
KCL2 221203Z 13005KT 06/06 A2994 RMK A01 T00640063  RH  100%=      5-min Rain = 0
KCL2 221204Z 13005KT 06/06 A2994 RMK A01 T00640063  RH  100%=      5-min Rain = 0
KCL2 221205Z 13006KT 06/06 A2994 RMK A01 T00630063  RH  100%=      5-min Rain = 0
KCL2 221206Z 13005KT 06/06 A2994 RMK A01 T00640063  RH  100%=      5-min Rain = 0
KCL2 221207Z 13005KT 06/06 A2995 RMK A01 T00640063  RH  100%=      5-min Rain = 0
KCL2 221208Z 12005KT 06/06 A2995 RMK A01 T00640063  RH  100%=      5-min Rain = 0
KCL2 221209Z 11005KT 06/06 A2995 RMK A01 T00640063  RH  100%=      5-min Rain = 0
KCL2 221210Z 12006KT 06/06 A2995 RMK A01 T00640063  RH  100%=      5-min Rain = 0
KCL2 221211Z 11005KT 06/06 A2995 RMK A01 T00640063  RH  100%=      5-min Rain = 0
KCL2 221212Z 11005KT 06/06 A2995 RMK A01 T00630063  RH  100%=      5-min Rain = 0
KCL2 221213Z 11006KT 06/06 A2995 RMK A01 T00630063  RH  100%=      5-min Rain = 0
KCL2 221214Z 10006KT 06/06 A2995 RMK A01 T00640063  RH  100%=      5-min Rain = 0
KCL2 221215Z 11006KT 06/06 A2995 RMK A01 T00640063  RH  100%=      5-min Rain = 0
KCL2 221216Z 10005KT 06/06 A2995 RMK A01 T00640063  RH  100%=      5-min Rain = 0
KCL2 221217Z 10005KT 06/06 A2995 RMK A01 T00640063  RH  100%=      5-min Rain = 0
KCL2 221218Z 10005KT 06/06 A2995 RMK A01 T00640063  RH  100%=      5-min Rain = 0
KCL2 221219Z 10005KT 06/06 A2995 RMK A01 T00640063  RH  100%=      5-min Rain = 0
KCL2 221220Z 10004KT 06/06 A2995 RMK A01 T00640063  RH  100%=      5-min Rain = 0
KCL2 221221Z 11004KT 06/06 A2995 RMK A01 T00640063  RH  100%=      5-min Rain = 0
KCL2 221222Z 11004KT 06/06 A2995 RMK A01 T00640063  RH  100%=      5-min Rain = 0
KCL2 221223Z 10004KT 06/06 A2995 RMK A01 T00640063  RH  100%=      5-min Rain = 0
KCL2 221224Z 10006KT 06/06 A2995 RMK A01 T00640063  RH  100%=      5-min Rain = 0
KCL2 221225Z 10006KT 06/06 A2995 RMK A01 T00640063  RH  100%=      5-min Rain = 0
KCL2 221226Z 10005KT 06/06 A2995 RMK A01 T00640063  RH  100%=      5-min Rain = 0
KCL2 221227Z 09006KT 06/06 A2995 RMK A01 T00640063  RH  100%=      5-min Rain = 0
KCL2 221228Z 09006KT 06/06 A2995 RMK A01 T00630063  RH  100%=      5-min Rain = 0
KCL2 221229Z 09006KT 06/06 A2995 RMK A01 T00640064  RH  100%=      5-min Rain = 0
KCL2 221230Z 09006KT 06/06 A2995 RMK A01 T00630063  RH  100%=      5-min Rain = 0
KCL2 221231Z 09006KT 06/06 A2995 RMK A01 T00640064  RH  100%=      5-min Rain = 0
KCL2 221232Z 10006KT 06/06 A2995 RMK A01 T00640064  RH  100%=      5-min Rain = 0
KCL2 221233Z 10005KT 06/06 A2995 RMK A01 T00640064  RH  100%=      5-min Rain = 0
KCL2 221234Z 10004KT 06/06 A2995 RMK A01 T00640064  RH  100%=      5-min Rain = 0
KCL2 221235Z 11006KT 06/06 A2995 RMK A01 T00640064  RH  100%=      5-min Rain = 0
KCL2 221236Z 10005KT 06/06 A2995 RMK A01 T00640064  RH  100%=      5-min Rain = 0
KCL2 221237Z 09005KT 06/06 A2995 RMK A01 T00640064  RH  100%=      5-min Rain = 0
KCL2 221238Z 09006KT 06/06 A2995 RMK A01 T00640064  RH  100%=      5-min Rain = 0
KCL2 221239Z 09007KT 06/06 A2995 RMK A01 T00640064  RH  100%=      5-min Rain = 0
KCL2 221240Z 09007KT 06/06 A2995 RMK A01 T00640064  RH  100%=      5-min Rain = 0
KCL2 221241Z 10007KT 06/06 A2995 RMK A01 T00640064  RH  100%=      5-min Rain = 0
KCL2 221242Z 09006KT 06/06 A2995 RMK A01 T00640064  RH  100%=      5-min Rain = 0
KCL2 221243Z 10006KT 06/06 A2995 RMK A01 T00640064  RH  100%=      5-min Rain = 0
KCL2 221244Z 10007KT 06/06 A2995 RMK A01 T00640064  RH  100%=      5-min Rain = 0
KCL2 221245Z 09007KT 06/06 A2995 RMK A01 T00640064  RH  100%=      5-min Rain = 0
KCL2 221246Z 09005KT 06/06 A2995 RMK A01 T00640064  RH  100%=      5-min Rain = 0
KCL2 221247Z 09003KT 06/06 A2995 RMK A01 T00640064  RH  100%=      5-min Rain = 0
KCL2 221248Z 11005KT 06/06 A2995 RMK A01 T00640064  RH  100%=      5-min Rain = 0
KCL2 221249Z 09008KT 06/06 A2995 RMK A01 T00640064  RH  100%=      5-min Rain = 0
KCL2 221250Z 09007KT 06/06 A2995 RMK A01 T00640064  RH  100%=      5-min Rain = 0
KCL2 221251Z 10005KT 06/06 A2996 RMK A01 T00640064  RH  100%=      5-min Rain = 0
KCL2 221252Z 11007KT 06/06 A2996 RMK A01 T00640064  RH  100%=      5-min Rain = 0
KCL2 221253Z 11006KT 06/06 A2996 RMK A01 T00640064  RH  100%=      5-min Rain = 0
KCL2 221254Z 10008KT 06/06 A2996 RMK A01 T00640064  RH  100%=      5-min Rain = 0
KCL2 221255Z 10007KT 06/06 A2996 RMK A01 T00640064  RH  100%=      5-min Rain = 0
KCL2 221256Z 09006KT 06/06 A2996 RMK A01 T00640064  RH  100%=      5-min Rain = 0
KCL2 221257Z 09006KT 06/06 A2996 RMK A01 T00640064  RH  100%=      5-min Rain = 0
KCL2 221258Z 09006KT 06/06 A2996 RMK A01 T00640064  RH  100%=      5-min Rain = 0
KCL2 221259Z 08006KT 06/06 A2996 RMK A01 T00640064  RH  100%=      5-min Rain = 0
KCL2 221300Z 09006KT 06/06 A2996 RMK A01 T00630063  RH  100%=      5-min Rain = 0
KCL2 221301Z 08006KT 06/06 A2996 RMK A01 T00640064  RH  100%=      5-min Rain = 0
KCL2 221302Z 08005KT 06/06 A2996 RMK A01 T00640064  RH  100%=      5-min Rain = 0
KCL2 221303Z 08006KT 06/06 A2996 RMK A01 T00640064  RH  100%=      5-min Rain = 0
KCL2 221304Z 08005KT 06/06 A2996 RMK A01 T00640064  RH  100%=      5-min Rain = 0
KCL2 221305Z 08006KT 06/06 A2996 RMK A01 T00640064  RH  100%=      5-min Rain = 0
KCL2 221306Z 07007KT 06/06 A2996 RMK A01 T00640064  RH  100%=      5-min Rain = 0
KCL2 221307Z 07007KT 06/06 A2996 RMK A01 T00640064  RH  100%=      5-min Rain = 0
KCL2 221308Z 07007KT 06/06 A2996 RMK A01 T00640064  RH  100%=      5-min Rain = 0
KCL2 221309Z 07008KT 06/06 A2996 RMK A01 T00640064  RH  100%=      5-min Rain = 0
KCL2 221310Z 07007KT 06/06 A2996 RMK A01 T00630063  RH  100%=      5-min Rain = 0
KCL2 221311Z 09006KT 06/06 A2996 RMK A01 T00630063  RH  100%=      5-min Rain = 0
KCL2 221312Z 09006KT 06/06 A2996 RMK A01 T00630063  RH  100%=      5-min Rain = 0
KCL2 221313Z 09005KT 06/06 A2996 RMK A01 T00630063  RH  100%=      5-min Rain = 0
KCL2 221314Z 09005KT 06/06 A2996 RMK A01 T00630063  RH  100%=      5-min Rain = 0
KCL2 221315Z 09006KT 06/06 A2996 RMK A01 T00630063  RH  100%=      5-min Rain = 0
KCL2 221316Z 08006KT 06/06 A2996 RMK A01 T00630063  RH  100%=      5-min Rain = 0
KCL2 221317Z 08005KT 06/06 A2996 RMK A01 T00630063  RH  100%=      5-min Rain = 0
KCL2 221318Z 07007KT 06/06 A2996 RMK A01 T00630063  RH  100%=      5-min Rain = 0
KCL2 221319Z 08006KT 06/06 A2996 RMK A01 T00630063  RH  100%=      5-min Rain = 0
KCL2 221320Z 08006KT 06/06 A2996 RMK A01 T00630063  RH  100%=      5-min Rain = 0
KCL2 221321Z 08007KT 06/06 A2996 RMK A01 T00630063  RH  100%=      5-min Rain = 0
KCL2 221322Z 08006KT 06/06 A2996 RMK A01 T00630063  RH  100%=      5-min Rain = 0
KCL2 221323Z 08006KT 06/06 A2996 RMK A01 T00630063  RH  100%=      5-min Rain = 0
KCL2 221324Z 08007KT 06/06 A2996 RMK A01 T00630063  RH  100%=      5-min Rain = 0
KCL2 221325Z 08007KT 06/06 A2996 RMK A01 T00630063  RH  100%=      5-min Rain = 0
KCL2 221326Z 08007KT 06/06 A2996 RMK A01 T00630063  RH  100%=      5-min Rain = 0
KCL2 221327Z 08007KT 06/06 A2996 RMK A01 T00630063  RH  100%=      5-min Rain = 0
KCL2 221328Z 08007KT 06/06 A2996 RMK A01 T00630063  RH  100%=      5-min Rain = 0
KCL2 221329Z 08007KT 06/06 A2996 RMK A01 T00630063  RH  100%=      5-min Rain = 0
KCL2 221330Z 08009KT 06/06 A2996 RMK A01 T00630063  RH  100%=      5-min Rain = 0
KCL2 221331Z 08009KT 06/06 A2996 RMK A01 T00630063  RH  100%=      5-min Rain = 0
KCL2 221332Z 09007KT 06/06 A2996 RMK A01 T00630063  RH  100%=      5-min Rain = 0
KCL2 221333Z 09007KT 06/06 A2996 RMK A01 T00630063  RH  100%=      5-min Rain = 0
KCL2 221334Z 09008KT 06/06 A2996 RMK A01 T00630063  RH  100%=      5-min Rain = 0
KCL2 221335Z 09008KT 06/06 A2996 RMK A01 T00630063  RH  100%=      5-min Rain = 0
KCL2 221336Z 10009KT 06/06 A2996 RMK A01 T00630063  RH  100%=      5-min Rain = 0
KCL2 221337Z 10010KT 06/06 A2997 RMK A01 T00630063  RH  100%=      5-min Rain = 0
KCL2 221338Z 10009KT 06/06 A2997 RMK A01 T00630063  RH  100%=      5-min Rain = 0
KCL2 221339Z 10009KT 06/06 A2997 RMK A01 T00630063  RH  100%=      5-min Rain = 0
KCL2 221340Z 10009KT 06/06 A2997 RMK A01 T00630063  RH  100%=      5-min Rain = 0
KCL2 221341Z 10008KT 06/06 A2997 RMK A01 T00630063  RH  100%=      5-min Rain = 0
KCL2 221342Z 10010KT 06/06 A2997 RMK A01 T00630063  RH  100%=      5-min Rain = 0
KCL2 221343Z 09009KT 06/06 A2996 RMK A01 T00630063  RH  100%=      5-min Rain = 0
KCL2 221344Z 10009KT 06/06 A2996 RMK A01 T00630063  RH  100%=      5-min Rain = 0
KCL2 221345Z 09008KT 06/06 A2996 RMK A01 T00630063  RH  100%=      5-min Rain = 0
KCL2 221346Z 09009KT 06/06 A2996 RMK A01 T00630063  RH  100%=      5-min Rain = 0
KCL2 221347Z 09011KT 06/06 A2996 RMK A01 T00630063  RH  100%=      5-min Rain = 0
KCL2 221348Z 09010KT 06/06 A2996 RMK A01 T00630063  RH  100%=      5-min Rain = 0
KCL2 221349Z 09008KT 06/06 A2996 RMK A01 T00630063  RH  100%=      5-min Rain = 0
KCL2 221350Z 10008KT 06/06 A2996 RMK A01 T00640064  RH  100%=      5-min Rain = 0
KCL2 221351Z 09008KT 06/06 A2996 RMK A01 T00640064  RH  100%=      5-min Rain = 0
KCL2 221352Z 10008KT 06/06 A2996 RMK A01 T00640064  RH  100%=      5-min Rain = 0
KCL2 221353Z 09008KT 06/06 A2996 RMK A01 T00640064  RH  100%=      5-min Rain = 0
KCL2 221354Z 09009KT 06/06 A2996 RMK A01 T00640064  RH  100%=      5-min Rain = 0
KCL2 221355Z 09009KT 06/06 A2996 RMK A01 T00640064  RH  100%=      5-min Rain = 0
KCL2 221356Z 09010KT 06/06 A2996 RMK A01 T00640064  RH  100%=      5-min Rain = 0
KCL2 221357Z 09009KT 06/06 A2996 RMK A01 T00640064  RH  100%=      5-min Rain = 0
KCL2 221358Z 09009KT 06/06 A2996 RMK A01 T00640064  RH  100%=      5-min Rain = 0
KCL2 221359Z 09009KT 06/06 A2996 RMK A01 T00640064  RH  100%=      5-min Rain = 0
KCL2 221400Z 08009KT 06/06 A2997 RMK A01 T00640064  RH  100%=      5-min Rain = 0
KCL2 221401Z 08012KT 06/06 A2997 RMK A01 T00640064  RH  100%=      5-min Rain = 0
KCL2 221402Z 09008KT 06/06 A2997 RMK A01 T00640064  RH  100%=      5-min Rain = 0
KCL2 221403Z 09008KT 06/06 A2997 RMK A01 T00630063  RH  100%=      5-min Rain = 0
KCL2 221404Z 09008KT 06/06 A2997 RMK A01 T00640064  RH  100%=      5-min Rain = 0
KCL2 221405Z 09007KT 06/06 A2997 RMK A01 T00640064  RH  100%=      5-min Rain = 0
KCL2 221406Z 09006KT 06/06 A2997 RMK A01 T00640064  RH  100%=      5-min Rain = 0
KCL2 221407Z 09005KT 06/06 A2997 RMK A01 T00640064  RH  100%=      5-min Rain = 0
KCL2 221408Z 09007KT 06/06 A2997 RMK A01 T00640064  RH  100%=      5-min Rain = 0
KCL2 221409Z 09007KT 06/06 A2997 RMK A01 T00640064  RH  100%=      5-min Rain = 0
KCL2 221410Z 09008KT 06/06 A2997 RMK A01 T00640064  RH  100%=      5-min Rain = 0
KCL2 221411Z 09007KT 06/06 A2997 RMK A01 T00640064  RH  100%=      5-min Rain = 0
KCL2 221412Z 08008KT 06/06 A2997 RMK A01 T00640064  RH  100%=      5-min Rain = 0
KCL2 221413Z 08007KT 06/06 A2997 RMK A01 T00640064  RH  100%=      5-min Rain = 0
KCL2 221414Z 09007KT 06/06 A2997 RMK A01 T00640064  RH  100%=      5-min Rain = 0
KCL2 221415Z 08007KT 06/06 A2997 RMK A01 T00640064  RH  100%=      5-min Rain = 0
KCL2 221416Z 09008KT 06/06 A2997 RMK A01 T00640064  RH  100%=      5-min Rain = 0
KCL2 221417Z 08008KT 06/06 A2997 RMK A01 T00640064  RH  100%=      5-min Rain = 0
KCL2 221418Z 08009KT 06/06 A2997 RMK A01 T00640064  RH  100%=      5-min Rain = 0
KCL2 221419Z 09008KT 06/06 A2997 RMK A01 T00640064  RH  100%=      5-min Rain = 0
KCL2 221420Z 09006KT 06/06 A2997 RMK A01 T00640064  RH  100%=      5-min Rain = 0
KCL2 221421Z 09007KT 07/07 A2997 RMK A01 T00650065  RH  100%=      5-min Rain = 0
KCL2 221422Z 09009KT 07/07 A2997 RMK A01 T00650065  RH  100%=      5-min Rain = 0
KCL2 221423Z 09009KT 07/07 A2997 RMK A01 T00650065  RH  100%=      5-min Rain = 0
KCL2 221424Z 08008KT 07/07 A2997 RMK A01 T00650065  RH  100%=      5-min Rain = 0
KCL2 221425Z 08007KT 07/07 A2997 RMK A01 T00650065  RH  100%=      5-min Rain = 0
KCL2 221426Z 08008KT 07/07 A2997 RMK A01 T00650065  RH  100%=      5-min Rain = 0
KCL2 221427Z 09008KT 07/07 A2998 RMK A01 T00650065  RH  100%=      5-min Rain = 0
KCL2 221428Z 08007KT 06/06 A2998 RMK A01 T00640064  RH  100%=      5-min Rain = 0
KCL2 221429Z 09006KT 06/06 A2998 RMK A01 T00640064  RH  100%=      5-min Rain = 0
KCL2 221430Z 09006KT 07/07 A2998 RMK A01 T00650065  RH  100%=      5-min Rain = 0
KCL2 221431Z 08004KT 07/07 A2998 RMK A01 T00650065  RH  100%=      5-min Rain = 0
KCL2 221432Z 09003KT 07/07 A2998 RMK A01 T00650065  RH  100%=      5-min Rain = 0
KCL2 221433Z 07002KT 07/07 A2998 RMK A01 T00650065  RH  100%=      5-min Rain = 0
KCL2 221434Z 08004KT 07/07 A2998 RMK A01 T00660066  RH  100%=      5-min Rain = 0
KCL2 221435Z 09005KT 07/07 A2998 RMK A01 T00660066  RH  100%=      5-min Rain = 0
KCL2 221436Z 08005KT 07/07 A2998 RMK A01 T00660066  RH  100%=      5-min Rain = 0
KCL2 221437Z 08006KT 07/07 A2998 RMK A01 T00660066  RH  100%=      5-min Rain = 0
KCL2 221438Z 08006KT 07/07 A2998 RMK A01 T00660066  RH  100%=      5-min Rain = 0
KCL2 221439Z 09005KT 07/07 A2997 RMK A01 T00660066  RH  100%=      5-min Rain = 0
KCL2 221440Z 09005KT 07/07 A2997 RMK A01 T00660066  RH  100%=      5-min Rain = 0
KCL2 221441Z 09006KT 07/07 A2997 RMK A01 T00670067  RH  100%=      5-min Rain = 0
KCL2 221442Z 09007KT 07/07 A2998 RMK A01 T00660066  RH  100%=      5-min Rain = 0
KCL2 221443Z 09006KT 07/07 A2997 RMK A01 T00660066  RH  100%=      5-min Rain = 0
KCL2 221444Z 09007KT 07/07 A2997 RMK A01 T00670067  RH  100%=      5-min Rain = 0
KCL2 221445Z 08008KT 07/07 A2997 RMK A01 T00670067  RH  100%=      5-min Rain = 0
KCL2 221446Z 10008KT 07/07 A2997 RMK A01 T00670067  RH  100%=      5-min Rain = 0
KCL2 221447Z 09010KT 07/07 A2998 RMK A01 T00670067  RH  100%=      5-min Rain = 0
KCL2 221448Z 10008KT 07/07 A2998 RMK A01 T00670067  RH  100%=      5-min Rain = 0
KCL2 221449Z 10008KT 07/07 A2998 RMK A01 T00670067  RH  100%=      5-min Rain = 0
KCL2 221450Z 10008KT 07/07 A2998 RMK A01 T00670067  RH  100%=      5-min Rain = 0
KCL2 221451Z 09010KT 07/07 A2998 RMK A01 T00670067  RH  100%=      5-min Rain = 0
KCL2 221452Z 09010KT 07/07 A2998 RMK A01 T00670067  RH  100%=      5-min Rain = 0
KCL2 221453Z 09009KT 07/07 A2998 RMK A01 T00670067  RH  100%=      5-min Rain = 0
KCL2 221454Z 10007KT 07/07 A2998 RMK A01 T00670067  RH  100%=      5-min Rain = 0
KCL2 221455Z 10007KT 07/07 A2998 RMK A01 T00670067  RH  100%=      5-min Rain = 0
KCL2 221456Z 09006KT 07/07 A2998 RMK A01 T00670067  RH  100%=      5-min Rain = 0
KCL2 221457Z 09004KT 07/07 A2998 RMK A01 T00670067  RH  100%=      5-min Rain = 0
KCL2 221458Z 09007KT 07/07 A2998 RMK A01 T00680068  RH  100%=      5-min Rain = 0
KCL2 221459Z 09007KT 07/07 A2998 RMK A01 T00680068  RH  100%=      5-min Rain = 0
KCL2 221500Z 09006KT 07/07 A2998 RMK A01 T00680068  RH  100%=      5-min Rain = 0
KCL2 221501Z 08005KT 07/07 A2998 RMK A01 T00680068  RH  100%=      5-min Rain = 0
KCL2 221502Z 09006KT 07/07 A2998 RMK A01 T00680068  RH  100%=      5-min Rain = 0
KCL2 221503Z 10006KT 07/07 A2998 RMK A01 T00680068  RH  100%=      5-min Rain = 0
KCL2 221504Z 09006KT 07/07 A2998 RMK A01 T00690069  RH  100%=      5-min Rain = 0
KCL2 221505Z 08007KT 07/07 A2998 RMK A01 T00690069  RH  100%=      5-min Rain = 0
KCL2 221506Z 09007KT 07/07 A2998 RMK A01 T00690069  RH  100%=      5-min Rain = 0
KCL2 221507Z 09007KT 07/07 A2998 RMK A01 T00690069  RH  100%=      5-min Rain = 0
KCL2 221508Z 08007KT 07/07 A2998 RMK A01 T00690069  RH  100%=      5-min Rain = 0
KCL2 221509Z 09007KT 07/07 A2998 RMK A01 T00700070  RH  100%=      5-min Rain = 0
KCL2 221510Z 09006KT 07/07 A2998 RMK A01 T00700070  RH  100%=      5-min Rain = 0
KCL2 221511Z 07007KT 07/07 A2998 RMK A01 T00700070  RH  100%=      5-min Rain = 0
KCL2 221512Z 08008KT 07/07 A2998 RMK A01 T00700070  RH  100%=      5-min Rain = 0
KCL2 221513Z 08008KT 07/07 A2998 RMK A01 T00700070  RH  100%=      5-min Rain = 0
KCL2 221514Z 09009KT 07/07 A2998 RMK A01 T00690069  RH  100%=      5-min Rain = 0
KCL2 221515Z 09009KT 07/07 A2998 RMK A01 T00700070  RH  100%=      5-min Rain = 0
KCL2 221516Z 09007KT 07/07 A2998 RMK A01 T00710071  RH  100%=      5-min Rain = 0
KCL2 221517Z 09007KT 07/07 A2998 RMK A01 T00710071  RH  100%=      5-min Rain = 0
KCL2 221518Z 09009KT 07/07 A2998 RMK A01 T00710071  RH  100%=      5-min Rain = 0
KCL2 221519Z 09007KT 07/07 A2998 RMK A01 T00710071  RH  100%=      5-min Rain = 0
KCL2 221520Z 09006KT 07/07 A2998 RMK A01 T00710071  RH  100%=      5-min Rain = 0
KCL2 221521Z 09006KT 07/07 A2998 RMK A01 T00720072  RH  100%=      5-min Rain = 0
KCL2 221522Z 09005KT 07/07 A2998 RMK A01 T00720072  RH  100%=      5-min Rain = 0
KCL2 221523Z 09006KT 07/07 A2998 RMK A01 T00720072  RH  100%=      5-min Rain = 0
KCL2 221524Z 08006KT 07/07 A2998 RMK A01 T00730073  RH  100%=      5-min Rain = 0
KCL2 221525Z 08006KT 07/07 A2997 RMK A01 T00730073  RH  100%=      5-min Rain = 0
KCL2 221526Z 08007KT 07/07 A2997 RMK A01 T00730073  RH  100%=      5-min Rain = 0
KCL2 221527Z 09006KT 07/07 A2997 RMK A01 T00730073  RH  100%=      5-min Rain = 0
KCL2 221528Z 07006KT 07/07 A2997 RMK A01 T00740074  RH  100%=      5-min Rain = 0
KCL2 221529Z 07008KT 07/07 A2997 RMK A01 T00740074  RH  100%=      5-min Rain = 0
KCL2 221530Z 08008KT 07/07 A2997 RMK A01 T00730073  RH  100%=      5-min Rain = 0
KCL2 221531Z 09006KT 07/07 A2997 RMK A01 T00730073  RH  100%=      5-min Rain = 0
KCL2 221532Z 09006KT 08/08 A2997 RMK A01 T00750075  RH  100%=      5-min Rain = 0
KCL2 221533Z 08005KT 08/08 A2997 RMK A01 T00760076  RH  100%=      5-min Rain = 0
KCL2 221534Z 09005KT 08/08 A2997 RMK A01 T00750075  RH  100%=      5-min Rain = 0
KCL2 221535Z 09006KT 08/08 A2997 RMK A01 T00760076  RH  100%=      5-min Rain = 0
KCL2 221536Z 09006KT 08/08 A2997 RMK A01 T00760076  RH  100%=      5-min Rain = 0
KCL2 221537Z 09007KT 08/08 A2997 RMK A01 T00760076  RH  100%=      5-min Rain = 0
KCL2 221538Z 09007KT 08/08 A2997 RMK A01 T00750075  RH  100%=      5-min Rain = 0
KCL2 221539Z 10005KT 08/08 A2997 RMK A01 T00760076  RH  100%=      5-min Rain = 0
KCL2 221540Z 10007KT 08/08 A2997 RMK A01 T00780078  RH  100%=      5-min Rain = 0
KCL2 221541Z 08007KT 08/08 A2997 RMK A01 T00770077  RH  100%=      5-min Rain = 0
KCL2 221542Z 08006KT 08/08 A2997 RMK A01 T00750075  RH  100%=      5-min Rain = 0
KCL2 221543Z 09007KT 08/08 A2997 RMK A01 T00750075  RH  100%=      5-min Rain = 0
KCL2 221544Z 09008KT 08/08 A2997 RMK A01 T00750075  RH  100%=      5-min Rain = 0
KCL2 221545Z 09006KT 08/08 A2997 RMK A01 T00750075  RH  100%=      5-min Rain = 0
KCL2 221546Z 09008KT 08/08 A2997 RMK A01 T00760076  RH  100%=      5-min Rain = 0
KCL2 221547Z 09008KT 08/08 A2997 RMK A01 T00750075  RH  100%=      5-min Rain = 0
KCL2 221548Z 09008KT 08/08 A2997 RMK A01 T00750075  RH  100%=      5-min Rain = 0
KCL2 221549Z 09008KT 08/08 A2997 RMK A01 T00750075  RH  100%=      5-min Rain = 0
KCL2 221550Z 09008KT 08/08 A2997 RMK A01 T00750075  RH  100%=      5-min Rain = 0
KCL2 221551Z 09009KT 08/08 A2997 RMK A01 T00750075  RH  100%=      5-min Rain = 0
KCL2 221552Z 09008KT 08/08 A2997 RMK A01 T00750075  RH  100%=      5-min Rain = 0
KCL2 221553Z 09008KT 08/08 A2997 RMK A01 T00750075  RH  100%=      5-min Rain = 0
KCL2 221554Z 09009KT 08/08 A2997 RMK A01 T00750075  RH  100%=      5-min Rain = 0
KCL2 221555Z 09008KT 08/08 A2997 RMK A01 T00750075  RH  100%=      5-min Rain = 0
KCL2 221556Z 09009KT 08/08 A2997 RMK A01 T00750075  RH  100%=      5-min Rain = 0
KCL2 221557Z 09008KT 07/07 A2997 RMK A01 T00740074  RH  100%=      5-min Rain = 0
KCL2 221558Z 09008KT 07/07 A2997 RMK A01 T00740074  RH  100%=      5-min Rain = 0
KCL2 221559Z 10008KT 08/08 A2997 RMK A01 T00750075  RH  100%=      5-min Rain = 0
KCL2 221600Z 09008KT 08/08 A2997 RMK A01 T00750075  RH  100%=      5-min Rain = 0
KCL2 221601Z 09007KT 08/08 A2997 RMK A01 T00750075  RH  100%=      5-min Rain = 0
KCL2 221602Z 10007KT 08/08 A2997 RMK A01 T00750075  RH  100%=      5-min Rain = 0
KCL2 221603Z 10007KT 08/08 A2997 RMK A01 T00760076  RH  100%=      5-min Rain = 0
KCL2 221604Z 10006KT 08/08 A2997 RMK A01 T00760076  RH  100%=      5-min Rain = 0
KCL2 221605Z 09008KT 08/08 A2996 RMK A01 T00770077  RH  100%=      5-min Rain = 0
KCL2 221606Z 10008KT 08/08 A2997 RMK A01 T00780078  RH  100%=      5-min Rain = 0
KCL2 221607Z 11009KT 08/08 A2996 RMK A01 T00780078  RH  100%=      5-min Rain = 0
KCL2 221608Z 11009KT 08/08 A2996 RMK A01 T00770077  RH  100%=      5-min Rain = 0
KCL2 221609Z 11009KT 08/08 A2996 RMK A01 T00770077  RH  100%=      5-min Rain = 0
KCL2 221610Z 11009KT 08/08 A2996 RMK A01 T00770077  RH  100%=      5-min Rain = 0
KCL2 221611Z 10008KT 08/08 A2996 RMK A01 T00760076  RH  100%=      5-min Rain = 0
KCL2 221612Z 10007KT 08/08 A2996 RMK A01 T00760076  RH  100%=      5-min Rain = 0
KCL2 221613Z 09007KT 08/08 A2996 RMK A01 T00770077  RH  100%=      5-min Rain = 0
KCL2 221614Z 09008KT 08/08 A2996 RMK A01 T00780078  RH  100%=      5-min Rain = 0
KCL2 221615Z 10007KT 08/08 A2996 RMK A01 T00770077  RH  100%=      5-min Rain = 0
KCL2 221616Z 10007KT 08/08 A2996 RMK A01 T00770077  RH  100%=      5-min Rain = 0
KCL2 221617Z 09007KT 08/08 A2996 RMK A01 T00780078  RH  100%=      5-min Rain = 0
KCL2 221618Z 09006KT 08/08 A2996 RMK A01 T00780078  RH  100%=      5-min Rain = 0
KCL2 221619Z 09007KT 08/08 A2996 RMK A01 T00780078  RH  100%=      5-min Rain = 0
KCL2 221620Z 09007KT 08/08 A2996 RMK A01 T00790079  RH  100%=      5-min Rain = 0
KCL2 221621Z 09008KT 08/08 A2996 RMK A01 T00790079  RH  100%=      5-min Rain = 0
KCL2 221622Z 09007KT 08/08 A2996 RMK A01 T00790079  RH  100%=      5-min Rain = 0
KCL2 221623Z 08009KT 08/08 A2996 RMK A01 T00790079  RH  100%=      5-min Rain = 0
KCL2 221624Z 09010KT 08/08 A2996 RMK A01 T00780079  RH  100%=      5-min Rain = 0
KCL2 221625Z 08008KT 08/08 A2996 RMK A01 T00780078  RH  100%=      5-min Rain = 0
KCL2 221626Z 08008KT 08/08 A2996 RMK A01 T00770077  RH  100%=      5-min Rain = 0
KCL2 221627Z 08008KT 08/08 A2996 RMK A01 T00780078  RH  100%=      5-min Rain = 0
KCL2 221628Z 07007KT 08/08 A2996 RMK A01 T00770077  RH  100%=      5-min Rain = 0
KCL2 221629Z 08007KT 08/08 A2996 RMK A01 T00770077  RH  100%=      5-min Rain = 0
KCL2 221630Z 08008KT 08/08 A2996 RMK A01 T00780078  RH  100%=      5-min Rain = 0
KCL2 221631Z 09007KT 08/08 A2996 RMK A01 T00780078  RH  100%=      5-min Rain = 0
KCL2 221632Z 08007KT 08/08 A2996 RMK A01 T00780078  RH  100%=      5-min Rain = 0
KCL2 221633Z 09007KT 08/08 A2996 RMK A01 T00790079  RH  100%=      5-min Rain = 0
KCL2 221634Z 08008KT 08/08 A2997 RMK A01 T00790079  RH  100%=      5-min Rain = 0
KCL2 221635Z 08007KT 08/08 A2996 RMK A01 T00790079  RH  100%=      5-min Rain = 0
KCL2 221636Z 09005KT 08/08 A2996 RMK A01 T00790079  RH  100%=      5-min Rain = 0
KCL2 221637Z 09006KT 08/08 A2996 RMK A01 T00810081  RH  100%=      5-min Rain = 0
KCL2 221638Z 10005KT 08/08 A2996 RMK A01 T00810081  RH  100%=      5-min Rain = 0
KCL2 221639Z 10006KT 08/08 A2996 RMK A01 T00810081  RH  100%=      5-min Rain = 0
KCL2 221640Z 09006KT 08/08 A2996 RMK A01 T00810081  RH  100%=      5-min Rain = 0
KCL2 221641Z 09006KT 08/08 A2996 RMK A01 T00800080  RH  100%=      5-min Rain = 0
KCL2 221642Z 09006KT 08/08 A2996 RMK A01 T00800080  RH  100%=      5-min Rain = 0
KCL2 221643Z 09007KT 08/08 A2996 RMK A01 T00810081  RH  100%=      5-min Rain = 0
KCL2 221644Z 09008KT 08/08 A2996 RMK A01 T00800080  RH  100%=      5-min Rain = 0
KCL2 221645Z 10008KT 08/08 A2996 RMK A01 T00800080  RH  100%=      5-min Rain = 0
KCL2 221646Z 09008KT 08/08 A2996 RMK A01 T00800080  RH  100%=      5-min Rain = 0
KCL2 221647Z 10009KT 08/08 A2996 RMK A01 T00800080  RH  100%=      5-min Rain = 0
KCL2 221648Z 09008KT 08/08 A2996 RMK A01 T00800080  RH  100%=      5-min Rain = 0
KCL2 221649Z 09008KT 08/08 A2996 RMK A01 T00810081  RH  100%=      5-min Rain = 0
KCL2 221650Z 10006KT 08/08 A2996 RMK A01 T00820082  RH  100%=      5-min Rain = 0
KCL2 221651Z 09006KT 08/08 A2996 RMK A01 T00820082  RH  100%=      5-min Rain = 0
KCL2 221652Z 09007KT 08/08 A2996 RMK A01 T00830083  RH  100%=      5-min Rain = 0
KCL2 221653Z 09008KT 08/08 A2996 RMK A01 T00830083  RH  100%=      5-min Rain = 0
KCL2 221654Z 08008KT 08/08 A2996 RMK A01 T00830083  RH  100%=      5-min Rain = 0
KCL2 221655Z 08007KT 08/08 A2996 RMK A01 T00830083  RH  100%=      5-min Rain = 0
KCL2 221656Z 08007KT 08/08 A2996 RMK A01 T00820082  RH  100%=      5-min Rain = 0
KCL2 221657Z 08007KT 08/08 A2996 RMK A01 T00810081  RH  100%=      5-min Rain = 0
KCL2 221658Z 08006KT 08/08 A2996 RMK A01 T00830083  RH  100%=      5-min Rain = 0
KCL2 221659Z 08007KT 08/08 A2996 RMK A01 T00840084  RH  100%=      5-min Rain = 0
KCL2 221700Z 09008KT 08/08 A2996 RMK A01 T00830083  RH  100%=      5-min Rain = 0
KCL2 221701Z 08008KT 08/08 A2996 RMK A01 T00830083  RH  100%=      5-min Rain = 0
KCL2 221702Z 08009KT 08/08 A2995 RMK A01 T00820082  RH  100%=      5-min Rain = 0
KCL2 221703Z 09009KT 08/08 A2995 RMK A01 T00820082  RH  100%=      5-min Rain = 0
KCL2 221704Z 09008KT 08/08 A2995 RMK A01 T00820082  RH  100%=      5-min Rain = 0
KCL2 221705Z 10008KT 08/08 A2996 RMK A01 T00830083  RH  100%=      5-min Rain = 0
KCL2 221706Z 10008KT 08/08 A2996 RMK A01 T00830083  RH  100%=      5-min Rain = 0
KCL2 221707Z 10008KT 08/08 A2996 RMK A01 T00840084  RH  100%=      5-min Rain = 0
KCL2 221708Z 10008KT 08/08 A2996 RMK A01 T00830083  RH  100%=      5-min Rain = 0
KCL2 221709Z 10008KT 08/08 A2996 RMK A01 T00840084  RH  100%=      5-min Rain = 0
KCL2 221710Z 11008KT 08/08 A2996 RMK A01 T00840084  RH  100%=      5-min Rain = 0
KCL2 221711Z 12008KT 09/09 A2996 RMK A01 T00850085  RH  100%=      5-min Rain = 0
KCL2 221712Z 11008KT 09/09 A2996 RMK A01 T00850085  RH  100%=      5-min Rain = 0
KCL2 221713Z 11009KT 09/09 A2996 RMK A01 T00850085  RH  100%=      5-min Rain = 0
KCL2 221714Z 10009KT 09/09 A2996 RMK A01 T00850085  RH  100%=      5-min Rain = 0
KCL2 221715Z 10009KT 08/08 A2996 RMK A01 T00830084  RH  100%=      5-min Rain = 0
KCL2 221716Z 10008KT 08/08 A2996 RMK A01 T00830083  RH  100%=      5-min Rain = 0
KCL2 221717Z 10007KT 08/08 A2996 RMK A01 T00840084  RH  100%=      5-min Rain = 0
KCL2 221718Z 12007KT 08/08 A2996 RMK A01 T00840084  RH  100%=      5-min Rain = 0
KCL2 221719Z 12010KT 09/09 A2996 RMK A01 T00850085  RH  100%=      5-min Rain = 0
KCL2 221720Z 11009KT 08/08 A2996 RMK A01 T00840084  RH  100%=      5-min Rain = 0
KCL2 221721Z 10009KT 08/08 A2996 RMK A01 T00840084  RH  100%=      5-min Rain = 0
KCL2 221722Z 10008KT 08/08 A2996 RMK A01 T00830083  RH  100%=      5-min Rain = 0
KCL2 221723Z 10010KT 08/08 A2996 RMK A01 T00820082  RH  100%=      5-min Rain = 0
KCL2 221724Z 10008KT 08/08 A2996 RMK A01 T00810081  RH  100%=      5-min Rain = 0
KCL2 221725Z 09009KT 08/08 A2996 RMK A01 T00800080  RH  100%=      5-min Rain = 0
KCL2 221726Z 10008KT 08/08 A2996 RMK A01 T00800080  RH  100%=      5-min Rain = 0
KCL2 221727Z 10007KT 08/08 A2996 RMK A01 T00800080  RH  100%=      5-min Rain = 0
KCL2 221728Z 11008KT 08/08 A2996 RMK A01 T00810081  RH  100%=      5-min Rain = 0
KCL2 221729Z 11007KT 08/08 A2996 RMK A01 T00820082  RH  100%=      5-min Rain = 0
KCL2 221730Z 11008KT 08/08 A2996 RMK A01 T00820082  RH  100%=      5-min Rain = 0
KCL2 221731Z 11009KT 08/08 A2996 RMK A01 T00820082  RH  100%=      5-min Rain = 0
KCL2 221732Z 10009KT 08/08 A2996 RMK A01 T00820082  RH  100%=      5-min Rain = 0
KCL2 221733Z 11007KT 08/08 A2996 RMK A01 T00820082  RH  100%=      5-min Rain = 0
KCL2 221734Z 10009KT 08/08 A2996 RMK A01 T00820082  RH  100%=      5-min Rain = 0
KCL2 221735Z 10009KT 08/08 A2996 RMK A01 T00810081  RH  100%=      5-min Rain = 0
KCL2 221736Z 10009KT 08/08 A2996 RMK A01 T00800080  RH  100%=      5-min Rain = 0
KCL2 221737Z 09009KT 08/08 A2996 RMK A01 T00800080  RH  100%=      5-min Rain = 0
KCL2 221738Z 09007KT 08/08 A2996 RMK A01 T00810081  RH  100%=      5-min Rain = 0
KCL2 221739Z 10008KT 08/08 A2995 RMK A01 T00810081  RH  100%=      5-min Rain = 0
KCL2 221740Z 11010KT 08/08 A2996 RMK A01 T00820082  RH  100%=      5-min Rain = 0
KCL2 221741Z 11009KT 08/08 A2996 RMK A01 T00820082  RH  100%=      5-min Rain = 0
KCL2 221742Z 12010KT 08/08 A2996 RMK A01 T00820082  RH  100%=      5-min Rain = 0
KCL2 221743Z 11008KT 08/08 A2996 RMK A01 T00820082  RH  100%=      5-min Rain = 0
KCL2 221744Z 12011KT 08/08 A2996 RMK A01 T00820082  RH  100%=      5-min Rain = 0
KCL2 221745Z 12008KT 08/08 A2996 RMK A01 T00820082  RH  100%=      5-min Rain = 0
KCL2 221746Z 12010KT 08/08 A2996 RMK A01 T00820082  RH  100%=      5-min Rain = 0
KCL2 221747Z 11010KT 08/08 A2996 RMK A01 T00810081  RH  100%=      5-min Rain = 0
KCL2 221748Z 11009KT 08/08 A2996 RMK A01 T00800080  RH  100%=      5-min Rain = 0
KCL2 221749Z 11008KT 08/08 A2996 RMK A01 T00800080  RH  100%=      5-min Rain = 0
KCL2 221750Z 11008KT 08/08 A2996 RMK A01 T00810081  RH  100%=      5-min Rain = 0
KCL2 221751Z 11009KT 08/08 A2996 RMK A01 T00810081  RH  100%=      5-min Rain = 0
KCL2 221752Z 10009KT 08/08 A2996 RMK A01 T00810081  RH  100%=      5-min Rain = 0
KCL2 221753Z 11010KT 08/08 A2996 RMK A01 T00810081  RH  100%=      5-min Rain = 0
KCL2 221754Z 11010KT 08/08 A2996 RMK A01 T00810081  RH  100%=      5-min Rain = 0
KCL2 221755Z 11007KT 08/08 A2996 RMK A01 T00800080  RH  100%=      5-min Rain = 0
KCL2 221756Z 10007KT 08/08 A2996 RMK A01 T00810081  RH  100%=      5-min Rain = 0
KCL2 221757Z 10007KT 08/08 A2996 RMK A01 T00820082  RH  100%=      5-min Rain = 0
KCL2 221758Z 11008KT 08/08 A2996 RMK A01 T00820082  RH  100%=      5-min Rain = 0
KCL2 221759Z 10009KT 08/08 A2996 RMK A01 T00820082  RH  100%=      5-min Rain = 0
KCL2 221800Z 10008KT 08/08 A2996 RMK A01 T00810081  RH  100%=      5-min Rain = 0
KCL2 221801Z 10007KT 08/08 A2996 RMK A01 T00800080  RH  100%=      5-min Rain = 0
KCL2 221802Z 10007KT 08/08 A2996 RMK A01 T00800080  RH  100%=      5-min Rain = 0
KCL2 221803Z 10007KT 08/08 A2996 RMK A01 T00810081  RH  100%=      5-min Rain = 0
KCL2 221804Z 10007KT 08/08 A2996 RMK A01 T00810081  RH  100%=      5-min Rain = 0
KCL2 221805Z 10009KT 08/08 A2996 RMK A01 T00800080  RH  100%=      5-min Rain = 0
KCL2 221806Z 09007KT 08/08 A2996 RMK A01 T00800080  RH  100%=      5-min Rain = 0
KCL2 221807Z 09009KT 08/08 A2996 RMK A01 T00810081  RH  100%=      5-min Rain = 0
KCL2 221808Z 09008KT 08/08 A2996 RMK A01 T00800080  RH  100%=      5-min Rain = 0
KCL2 221809Z 10007KT 08/08 A2996 RMK A01 T00800080  RH  100%=      5-min Rain = 0
KCL2 221810Z 09006KT 08/08 A2996 RMK A01 T00800080  RH  100%=      5-min Rain = 0
KCL2 221811Z 09007KT 08/08 A2996 RMK A01 T00810081  RH  100%=      5-min Rain = 0
KCL2 221812Z 10005KT 08/08 A2996 RMK A01 T00810081  RH  100%=      5-min Rain = 0
KCL2 221813Z 09006KT 08/08 A2995 RMK A01 T00820082  RH  100%=      5-min Rain = 0
KCL2 221814Z 09007KT 08/08 A2995 RMK A01 T00820082  RH  100%=      5-min Rain = 0
KCL2 221815Z 09007KT 08/08 A2995 RMK A01 T00810081  RH  100%=      5-min Rain = 0
KCL2 221816Z 09007KT 08/08 A2995 RMK A01 T00810081  RH  100%=      5-min Rain = 0
KCL2 221817Z 08007KT 08/08 A2995 RMK A01 T00800080  RH  100%=      5-min Rain = 0
KCL2 221818Z 09007KT 08/08 A2995 RMK A01 T00800080  RH  100%=      5-min Rain = 0
KCL2 221819Z 09006KT 08/08 A2995 RMK A01 T00800080  RH  100%=      5-min Rain = 0
KCL2 221820Z 11005KT 08/08 A2995 RMK A01 T00810081  RH  100%=      5-min Rain = 0
KCL2 221821Z 11005KT 08/08 A2995 RMK A01 T00820082  RH  100%=      5-min Rain = 0
KCL2 221822Z 10006KT 08/08 A2995 RMK A01 T00820082  RH  100%=      5-min Rain = 0
KCL2 221823Z 09006KT 08/08 A2995 RMK A01 T00820082  RH  100%=      5-min Rain = 0
KCL2 221824Z 10005KT 08/08 A2995 RMK A01 T00820082  RH  100%=      5-min Rain = 0
KCL2 221825Z 10005KT 08/08 A2995 RMK A01 T00830083  RH  100%=      5-min Rain = 0
KCL2 221826Z 10004KT 08/08 A2995 RMK A01 T00840084  RH  100%=      5-min Rain = 0
KCL2 221827Z 11006KT 09/09 A2994 RMK A01 T00850085  RH  100%=      5-min Rain = 0
KCL2 221828Z 11007KT 09/09 A2994 RMK A01 T00860087  RH  100%=      5-min Rain = 0
KCL2 221829Z 10006KT 09/09 A2994 RMK A01 T00850085  RH  100%=      5-min Rain = 0
KCL2 221830Z 11007KT 08/09 A2994 RMK A01 T00840085  RH  100%=      5-min Rain = 0
KCL2 221831Z 11006KT 09/09 A2994 RMK A01 T00850085  RH  100%=      5-min Rain = 0
KCL2 221832Z 10005KT 09/09 A2994 RMK A01 T00850085  RH  100%=      5-min Rain = 0
KCL2 221833Z 09005KT 09/09 A2994 RMK A01 T00850085  RH  100%=      5-min Rain = 0
KCL2 221834Z 09006KT 09/09 A2994 RMK A01 T00850085  RH  100%=      5-min Rain = 0
KCL2 221835Z 09007KT 08/08 A2994 RMK A01 T00840084  RH  100%=      5-min Rain = 0
KCL2 221836Z 09006KT 08/08 A2994 RMK A01 T00840084  RH  100%=      5-min Rain = 0
KCL2 221837Z 09006KT 08/08 A2994 RMK A01 T00830083  RH  100%=      5-min Rain = 0
KCL2 221838Z 10006KT 08/08 A2994 RMK A01 T00830083  RH  100%=      5-min Rain = 0
KCL2 221839Z 09005KT 08/08 A2994 RMK A01 T00830083  RH  100%=      5-min Rain = 0
KCL2 221840Z 08005KT 08/08 A2994 RMK A01 T00840084  RH  100%=      5-min Rain = 0
KCL2 221841Z 09005KT 09/09 A2993 RMK A01 T00850085  RH  100%=      5-min Rain = 0
KCL2 221842Z 08006KT 08/08 A2993 RMK A01 T00840084  RH  100%=      5-min Rain = 0
KCL2 221843Z 09006KT 08/08 A2993 RMK A01 T00830083  RH  100%=      5-min Rain = 0
KCL2 221844Z 10006KT 08/08 A2993 RMK A01 T00840084  RH  100%=      5-min Rain = 0
KCL2 221845Z 10006KT 08/08 A2993 RMK A01 T00840084  RH  100%=      5-min Rain = 0
KCL2 221846Z 11007KT 09/09 A2993 RMK A01 T00850085  RH  100%=      5-min Rain = 0
KCL2 221847Z 10007KT 09/09 A2993 RMK A01 T00850085  RH  100%=      5-min Rain = 0
KCL2 221848Z 10005KT 09/09 A2993 RMK A01 T00850085  RH  100%=      5-min Rain = 0
KCL2 221849Z 11006KT 09/09 A2993 RMK A01 T00850085  RH  100%=      5-min Rain = 0
KCL2 221850Z 11007KT 09/09 A2993 RMK A01 T00860086  RH  100%=      5-min Rain = 0
KCL2 221851Z 11005KT 09/09 A2993 RMK A01 T00860086  RH  100%=      5-min Rain = 0
KCL2 221852Z 11005KT 09/09 A2993 RMK A01 T00860086  RH  100%=      5-min Rain = 0
KCL2 221853Z 11004KT 09/09 A2993 RMK A01 T00860087  RH  100%=      5-min Rain = 0
KCL2 221854Z 10007KT 09/09 A2993 RMK A01 T00860086  RH  100%=      5-min Rain = 0
KCL2 221855Z 10006KT 09/09 A2993 RMK A01 T00860086  RH  100%=      5-min Rain = 0
KCL2 221856Z 11007KT 09/09 A2993 RMK A01 T00860086  RH  100%=      5-min Rain = 0
KCL2 221857Z 10006KT 09/09 A2993 RMK A01 T00860086  RH  100%=      5-min Rain = 0
KCL2 221858Z 09006KT 09/09 A2993 RMK A01 T00870087  RH  100%=      5-min Rain = 0
KCL2 221859Z 10006KT 09/09 A2992 RMK A01 T00860086  RH  100%=      5-min Rain = 0
KCL2 221900Z 09006KT 09/09 A2992 RMK A01 T00860086  RH  100%=      5-min Rain = 0
KCL2 221901Z 10006KT 09/09 A2992 RMK A01 T00850085  RH  100%=      5-min Rain = 0
KCL2 221902Z 10007KT 09/09 A2992 RMK A01 T00850085  RH  100%=      5-min Rain = 0
KCL2 221903Z 11006KT 09/09 A2992 RMK A01 T00860086  RH  100%=      5-min Rain = 0
KCL2 221904Z 10005KT 09/09 A2992 RMK A01 T00860086  RH  100%=      5-min Rain = 0
KCL2 221905Z 11005KT 09/09 A2992 RMK A01 T00860086  RH  100%=      5-min Rain = 0
KCL2 221906Z 12006KT 09/09 A2992 RMK A01 T00870087  RH  100%=      5-min Rain = 0
KCL2 221907Z 12007KT 09/09 A2992 RMK A01 T00880088  RH  100%=      5-min Rain = 0
KCL2 221908Z 12006KT 09/09 A2992 RMK A01 T00880088  RH  100%=      5-min Rain = 0
KCL2 221909Z 12007KT 09/09 A2992 RMK A01 T00880088  RH  100%=      5-min Rain = 0
KCL2 221910Z 11007KT 09/09 A2992 RMK A01 T00880088  RH  100%=      5-min Rain = 0
KCL2 221911Z 11007KT 09/09 A2992 RMK A01 T00890089  RH  100%=      5-min Rain = 0
KCL2 221912Z 11008KT 09/09 A2992 RMK A01 T00890089  RH  100%=      5-min Rain = 0
KCL2 221913Z 11008KT 09/09 A2992 RMK A01 T00880088  RH  100%=      5-min Rain = 0
KCL2 221914Z 11008KT 09/09 A2992 RMK A01 T00880088  RH  100%=      5-min Rain = 0
KCL2 221915Z 11008KT 09/09 A2992 RMK A01 T00880088  RH  100%=      5-min Rain = 0
KCL2 221916Z 10009KT 09/09 A2992 RMK A01 T00890089  RH  100%=      5-min Rain = 0
KCL2 221917Z 11008KT 09/09 A2992 RMK A01 T00890089  RH  100%=      5-min Rain = 0
KCL2 221918Z 12008KT 09/09 A2992 RMK A01 T00890089  RH  100%=      5-min Rain = 0
KCL2 221919Z 13008KT 09/09 A2992 RMK A01 T00900090  RH  100%=      5-min Rain = 0
KCL2 221920Z 12007KT 09/09 A2992 RMK A01 T00900090  RH  100%=      5-min Rain = 0
KCL2 221921Z 13007KT 09/09 A2992 RMK A01 T00910091  RH  100%=      5-min Rain = 0
KCL2 221922Z 12006KT 09/09 A2992 RMK A01 T00910091  RH  100%=      5-min Rain = 0
KCL2 221923Z 10006KT 09/09 A2991 RMK A01 T00910091  RH  100%=      5-min Rain = 0
KCL2 221924Z 11008KT 09/09 A2991 RMK A01 T00910091  RH  100%=      5-min Rain = 0
KCL2 221925Z 11009KT 09/09 A2991 RMK A01 T00910091  RH  100%=      5-min Rain = 0
KCL2 221926Z 10008KT 09/09 A2991 RMK A01 T00910091  RH  100%=      5-min Rain = 0
KCL2 221927Z 11007KT 09/09 A2991 RMK A01 T00910091  RH  100%=      5-min Rain = 0
KCL2 221928Z 10009KT 09/09 A2991 RMK A01 T00920092  RH  100%=      5-min Rain = 0
KCL2 221929Z 13007KT 09/09 A2991 RMK A01 T00920092  RH  100%=      5-min Rain = 0
KCL2 221930Z 11007KT 09/09 A2991 RMK A01 T00930093  RH  100%=      5-min Rain = 0
KCL2 221931Z 11007KT 09/09 A2991 RMK A01 T00940094  RH  100%=      5-min Rain = 0
KCL2 221932Z 12008KT 09/09 A2991 RMK A01 T00940094  RH  100%=      5-min Rain = 0
KCL2 221933Z 11007KT 09/09 A2991 RMK A01 T00940094  RH  100%=      5-min Rain = 0
KCL2 221934Z 11006KT 09/09 A2991 RMK A01 T00940094  RH  100%=      5-min Rain = 0
KCL2 221935Z 11008KT 09/09 A2991 RMK A01 T00940094  RH  100%=      5-min Rain = 0
KCL2 221936Z 11007KT 09/09 A2991 RMK A01 T00940094  RH  100%=      5-min Rain = 0
KCL2 221937Z 10008KT 09/09 A2991 RMK A01 T00940094  RH  100%=      5-min Rain = 0
KCL2 221938Z 10008KT 09/09 A2991 RMK A01 T00940094  RH  100%=      5-min Rain = 0
KCL2 221939Z 11008KT 09/09 A2991 RMK A01 T00940094  RH  100%=      5-min Rain = 0
KCL2 221940Z 11006KT 10/10 A2991 RMK A01 T00950095  RH  100%=      5-min Rain = 0
KCL2 221941Z 13007KT 10/10 A299 RMK A01 T00960096  RH  100%=      5-min Rain = 0
KCL2 221942Z 12005KT 10/10 A2991 RMK A01 T00960096  RH  100%=      5-min Rain = 0
KCL2 221943Z 11005KT 10/10 A299 RMK A01 T00970097  RH  100%=      5-min Rain = 0
KCL2 221944Z 10007KT 10/10 A299 RMK A01 T00970097  RH  100%=      5-min Rain = 0
KCL2 221945Z 12008KT 10/10 A299 RMK A01 T00950095  RH  100%=      5-min Rain = 0
KCL2 221946Z 12007KT 10/10 A299 RMK A01 T00950095  RH  100%=      5-min Rain = 0
KCL2 221947Z 11007KT 09/09 A299 RMK A01 T00940094  RH  100%=      5-min Rain = 0
KCL2 221948Z 11007KT 10/10 A299 RMK A01 T00950095  RH  100%=      5-min Rain = 0
KCL2 221949Z 11008KT 10/10 A299 RMK A01 T00960096  RH  100%=      5-min Rain = 0
KCL2 221950Z 12008KT 10/10 A299 RMK A01 T00950095  RH  100%=      5-min Rain = 0
KCL2 221951Z 12008KT 10/10 A2989 RMK A01 T00950095  RH  100%=      5-min Rain = 0
KCL2 221952Z 13007KT 10/10 A2989 RMK A01 T00950095  RH  100%=      5-min Rain = 0
KCL2 221953Z 13008KT 10/10 A2989 RMK A01 T00950095  RH  100%=      5-min Rain = 0
KCL2 221954Z 12007KT 10/10 A2989 RMK A01 T00950095  RH  100%=      5-min Rain = 0
KCL2 221955Z 12007KT 10/10 A2989 RMK A01 T00960096  RH  100%=      5-min Rain = 0
KCL2 221956Z 12006KT 10/10 A2989 RMK A01 T00970097  RH  100%=      5-min Rain = 0
KCL2 221957Z 10007KT 10/10 A2989 RMK A01 T00960097  RH  100%=      5-min Rain = 0
KCL2 221958Z 12006KT 10/10 A2989 RMK A01 T00980098  RH  100%=      5-min Rain = 0
KCL2 221959Z 12006KT 10/10 A2989 RMK A01 T00980098  RH  100%=      5-min Rain = 0
KCL2 222000Z 11006KT 10/10 A2989 RMK A01 T00970097  RH  100%=      5-min Rain = 0
KCL2 222001Z 12006KT 10/10 A2989 RMK A01 T00970097  RH  100%=      5-min Rain = 0
KCL2 222002Z 12006KT 10/10 A2989 RMK A01 T00970097  RH  100%=      5-min Rain = 0
KCL2 222003Z 11005KT 10/10 A2989 RMK A01 T00970097  RH  100%=      5-min Rain = 0
KCL2 222004Z 12006KT 10/10 A2989 RMK A01 T00970097  RH  100%=      5-min Rain = 0
KCL2 222005Z 12007KT 10/10 A2989 RMK A01 T00970098  RH  100%=      5-min Rain = 0
KCL2 222006Z 11006KT 10/10 A2989 RMK A01 T00970097  RH  100%=      5-min Rain = 0
KCL2 222007Z 12007KT 10/10 A2988 RMK A01 T00970097  RH  100%=      5-min Rain = 0
KCL2 222008Z 11007KT 10/10 A2988 RMK A01 T00970097  RH  100%=      5-min Rain = 0
KCL2 222009Z 12006KT 10/10 A2988 RMK A01 T00970097  RH  100%=      5-min Rain = 0
KCL2 222010Z 13007KT 10/10 A2988 RMK A01 T00970097  RH  100%=      5-min Rain = 0
KCL2 222011Z 13006KT 10/10 A2988 RMK A01 T00970097  RH  100%=      5-min Rain = 0
KCL2 222012Z 13006KT 10/10 A2988 RMK A01 T00960096  RH  100%=      5-min Rain = 0
KCL2 222013Z 13007KT 10/10 A2988 RMK A01 T00960096  RH  100%=      5-min Rain = 0
KCL2 222014Z 12006KT 10/10 A2988 RMK A01 T00970097  RH  100%=      5-min Rain = 0
KCL2 222015Z 10007KT 10/10 A2988 RMK A01 T00970097  RH  100%=      5-min Rain = 0
KCL2 222016Z 11008KT 10/10 A2988 RMK A01 T00970097  RH  100%=      5-min Rain = 0
KCL2 222017Z 11008KT 10/10 A2988 RMK A01 T00980098  RH  100%=      5-min Rain = 0
KCL2 222018Z 11008KT 10/10 A2988 RMK A01 T00980098  RH  100%=      5-min Rain = 0
KCL2 222019Z 10006KT 10/10 A2988 RMK A01 T00980098  RH  100%=      5-min Rain = 0
KCL2 222020Z 10008KT 10/10 A2988 RMK A01 T00980098  RH  100%=      5-min Rain = 0
KCL2 222021Z 11010KT 10/10 A2988 RMK A01 T00980098  RH  100%=      5-min Rain = 0
KCL2 222022Z 12009KT 10/10 A2988 RMK A01 T00980098  RH  100%=      5-min Rain = 0
KCL2 222023Z 13007KT 10/10 A2988 RMK A01 T00970097  RH  100%=      5-min Rain = 0
KCL2 222024Z 12006KT 10/10 A2988 RMK A01 T00980098  RH  100%=      5-min Rain = 0
KCL2 222025Z 11008KT 10/10 A2988 RMK A01 T01000100  RH  100%=      5-min Rain = 0
KCL2 222026Z 11008KT 10/10 A2988 RMK A01 T01000100  RH  100%=      5-min Rain = 0
KCL2 222027Z 10007KT 10/10 A2988 RMK A01 T00990099  RH  100%=      5-min Rain = 0
KCL2 222028Z 11006KT 10/10 A2988 RMK A01 T00990099  RH  100%=      5-min Rain = 0
KCL2 222029Z 11009KT 10/10 A2988 RMK A01 T00990099  RH  100%=      5-min Rain = 0
KCL2 222030Z 11007KT 10/10 A2988 RMK A01 T00990099  RH  100%=      5-min Rain = 0
KCL2 222031Z 11007KT 10/10 A2988 RMK A01 T00990099  RH  100%=      5-min Rain = 0
KCL2 222032Z 10008KT 10/10 A2988 RMK A01 T00990099  RH  100%=      5-min Rain = 0
KCL2 222033Z 11007KT 10/10 A2988 RMK A01 T00990099  RH  100%=      5-min Rain = 0
KCL2 222034Z 11007KT 10/10 A2988 RMK A01 T00990099  RH  100%=      5-min Rain = 0
KCL2 222035Z 12007KT 10/10 A2988 RMK A01 T01000100  RH  100%=      5-min Rain = 0
KCL2 222036Z 11007KT 10/10 A2988 RMK A01 T01000100  RH  100%=      5-min Rain = 0
KCL2 222037Z 11008KT 10/10 A2988 RMK A01 T01000100  RH  100%=      5-min Rain = 0
KCL2 222038Z 11008KT 10/10 A2988 RMK A01 T01010101  RH  100%=      5-min Rain = 0
KCL2 222039Z 12009KT 10/10 A2988 RMK A01 T01010101  RH  100%=      5-min Rain = 0
KCL2 222040Z 12009KT 10/10 A2988 RMK A01 T01010101  RH  100%=      5-min Rain = 0
KCL2 222041Z 12009KT 10/10 A2988 RMK A01 T01000101  RH  100%=      5-min Rain = 0
KCL2 222042Z 12009KT 10/10 A2988 RMK A01 T01010101  RH  100%=      5-min Rain = 0
KCL2 222043Z 12010KT 10/10 A2988 RMK A01 T01010101  RH  100%=      5-min Rain = 0
KCL2 222044Z 12008KT 10/10 A2988 RMK A01 T01010101  RH  100%=      5-min Rain = 0
KCL2 222045Z 13006KT 10/10 A2988 RMK A01 T01010101  RH  100%=      5-min Rain = 0
KCL2 222046Z 13007KT 10/10 A2988 RMK A01 T01010101  RH  100%=      5-min Rain = 0
KCL2 222047Z 13008KT 10/10 A2988 RMK A01 T01010101  RH  100%=      5-min Rain = 0
KCL2 222048Z 13008KT 10/10 A2988 RMK A01 T01020102  RH  100%=      5-min Rain = 0
KCL2 222049Z 12007KT 10/10 A2988 RMK A01 T01020102  RH  100%=      5-min Rain = 0
KCL2 222050Z 11009KT 10/10 A2988 RMK A01 T01030103  RH  100%=      5-min Rain = 0
KCL2 222051Z 12008KT 10/10 A2987 RMK A01 T01030103  RH  100%=      5-min Rain = 0
KCL2 222052Z 11008KT 10/10 A2987 RMK A01 T01030103  RH  100%=      5-min Rain = 0
KCL2 222053Z 11008KT 10/10 A2987 RMK A01 T01030103  RH  099%=      5-min Rain = 0
KCL2 222054Z 10007KT 10/10 A2987 RMK A01 T01030102  RH  099%=      5-min Rain = 0
KCL2 222055Z 11009KT 10/10 A2987 RMK A01 T01030102  RH  099%=      5-min Rain = 0
KCL2 222056Z 11009KT 10/10 A2987 RMK A01 T01030102  RH  099%=      5-min Rain = 0
KCL2 222057Z 11009KT 10/10 A2987 RMK A01 T01020101  RH  099%=      5-min Rain = 0
KCL2 222058Z 12009KT 10/10 A2987 RMK A01 T01020101  RH  099%=      5-min Rain = 0
KCL2 222059Z 12008KT 10/10 A2987 RMK A01 T01020101  RH  099%=      5-min Rain = 0
KCL2 222100Z 11007KT 10/10 A2987 RMK A01 T01030101  RH  099%=      5-min Rain = 0
KCL2 222101Z 12010KT 10/10 A2987 RMK A01 T01040103  RH  099%=      5-min Rain = 0
KCL2 222102Z 12011KT 11/10 A2987 RMK A01 T01050103  RH  099%=      5-min Rain = 0
KCL2 222103Z 12009KT 10/10 A2987 RMK A01 T01040102  RH  099%=      5-min Rain = 0
KCL2 222104Z 12008KT 10/10 A2987 RMK A01 T01040102  RH  098%=      5-min Rain = 0
KCL2 222105Z 12010KT 11/10 A2987 RMK A01 T01050102  RH  098%=      5-min Rain = 0
KCL2 222106Z 12009KT 11/10 A2987 RMK A01 T01050102  RH  098%=      5-min Rain = 0
KCL2 222107Z 12009KT 11/10 A2987 RMK A01 T01050102  RH  098%=      5-min Rain = 0
KCL2 222108Z 10010KT 11/10 A2987 RMK A01 T01060102  RH  098%=      5-min Rain = 0
KCL2 222109Z 11011KT 11/10 A2986 RMK A01 T01060102  RH  097%=      5-min Rain = 0
KCL2 222110Z 11010KT 11/10 A2987 RMK A01 T01050101  RH  097%=      5-min Rain = 0
KCL2 222111Z 11009KT 11/10 A2987 RMK A01 T01050101  RH  097%=      5-min Rain = 0
KCL2 222112Z 12007KT 11/10 A2987 RMK A01 T01050101  RH  097%=      5-min Rain = 0
KCL2 222113Z 12008KT 11/10 A2987 RMK A01 T01060102  RH  097%=      5-min Rain = 0
KCL2 222114Z 12008KT 11/10 A2987 RMK A01 T01060102  RH  097%=      5-min Rain = 0
KCL2 222115Z 11009KT 11/10 A2987 RMK A01 T01060101  RH  097%=      5-min Rain = 0
KCL2 222116Z 12010KT 11/10 A2987 RMK A01 T01070101  RH  096%=      5-min Rain = 0
KCL2 222117Z 12010KT 11/10 A2987 RMK A01 T01060100  RH  096%=      5-min Rain = 0
KCL2 222118Z 12009KT 11/10 A2987 RMK A01 T01070100  RH  096%=      5-min Rain = 0
KCL2 222119Z 12008KT 11/10 A2987 RMK A01 T01070100  RH  095%=      5-min Rain = 0
KCL2 222120Z 12009KT 11/10 A2987 RMK A01 T01070099  RH  095%=      5-min Rain = 0
KCL2 222121Z 11009KT 11/10 A2987 RMK A01 T01070100  RH  095%=      5-min Rain = 0
KCL2 222122Z 11009KT 11/10 A2987 RMK A01 T01070100  RH  095%=      5-min Rain = 0
KCL2 222123Z 12009KT 11/10 A2986 RMK A01 T01080100  RH  095%=      5-min Rain = 0
KCL2 222124Z 12009KT 11/10 A2986 RMK A01 T01090100  RH  095%=      5-min Rain = 0
KCL2 222125Z 11009KT 11/10 A2986 RMK A01 T01090101  RH  095%=      5-min Rain = 0
KCL2 222126Z 11008KT 11/10 A2986 RMK A01 T01090101  RH  094%=      5-min Rain = 0
KCL2 222127Z 11008KT 11/10 A2986 RMK A01 T01090100  RH  094%=      5-min Rain = 0
KCL2 222128Z 11006KT 11/10 A2986 RMK A01 T01090100  RH  094%=      5-min Rain = 0
KCL2 222129Z 11008KT 11/10 A2986 RMK A01 T01100102  RH  095%=      5-min Rain = 0
KCL2 222130Z 11009KT 11/10 A2986 RMK A01 T01100101  RH  094%=      5-min Rain = 0
KCL2 222131Z 11009KT 11/10 A2986 RMK A01 T01090099  RH  094%=      5-min Rain = 0
KCL2 222132Z 11009KT 11/10 A2986 RMK A01 T01090100  RH  094%=      5-min Rain = 0
KCL2 222133Z 11010KT 11/10 A2986 RMK A01 T01080099  RH  094%=      5-min Rain = 0
KCL2 222134Z 11010KT 11/10 A2986 RMK A01 T01080099  RH  094%=      5-min Rain = 0
KCL2 222135Z 11008KT 11/10 A2986 RMK A01 T01080099  RH  094%=      5-min Rain = 0
KCL2 222136Z 11009KT 11/10 A2986 RMK A01 T01080099  RH  094%=      5-min Rain = 0
KCL2 222137Z 11010KT 11/10 A2986 RMK A01 T01080099  RH  094%=      5-min Rain = 0
KCL2 222138Z 11009KT 11/10 A2986 RMK A01 T01080099  RH  094%=      5-min Rain = 0
KCL2 222139Z 12009KT 11/10 A2986 RMK A01 T01080100  RH  094%=      5-min Rain = 0
KCL2 222140Z 11009KT 11/10 A2986 RMK A01 T01080099  RH  094%=      5-min Rain = 0
KCL2 222141Z 12010KT 11/10 A2986 RMK A01 T01090099  RH  094%=      5-min Rain = 0
KCL2 222142Z 11008KT 11/10 A2986 RMK A01 T01090099  RH  094%=      5-min Rain = 0
KCL2 222143Z 12008KT 11/10 A2986 RMK A01 T01090099  RH  094%=      5-min Rain = 0
KCL2 222144Z 12010KT 11/10 A2986 RMK A01 T01100100  RH  094%=      5-min Rain = 0
KCL2 222145Z 12011KT 11/10 A2986 RMK A01 T01100099  RH  093%=      5-min Rain = 0
KCL2 222146Z 12009KT 11/10 A2986 RMK A01 T01100099  RH  093%=      5-min Rain = 0
KCL2 222147Z 12008KT 11/10 A2986 RMK A01 T01100100  RH  093%=      5-min Rain = 0
KCL2 222148Z 12009KT 11/10 A2986 RMK A01 T01110100  RH  093%=      5-min Rain = 0
KCL2 222149Z 12007KT 11/10 A2986 RMK A01 T01110100  RH  093%=      5-min Rain = 0
KCL2 222150Z 11008KT 11/10 A2986 RMK A01 T01120102  RH  093%=      5-min Rain = 0
KCL2 222151Z 12007KT 11/10 A2986 RMK A01 T01130101  RH  092%=      5-min Rain = 0
KCL2 222152Z 12007KT 11/10 A2986 RMK A01 T01140102  RH  092%=      5-min Rain = 0
KCL2 222153Z 11007KT 12/10 A2986 RMK A01 T01150102  RH  092%=      5-min Rain = 0
KCL2 222154Z 12006KT 12/10 A2986 RMK A01 T01150101  RH  092%=      5-min Rain = 0
KCL2 222155Z 11007KT 12/10 A2986 RMK A01 T01150101  RH  091%=      5-min Rain = 0
KCL2 222156Z 12008KT 12/10 A2986 RMK A01 T01150101  RH  091%=      5-min Rain = 0
KCL2 222157Z 11007KT 11/10 A2986 RMK A01 T01140101  RH  091%=      5-min Rain = 0
KCL2 222158Z 11009KT 12/10 A2986 RMK A01 T01150101  RH  091%=      5-min Rain = 0
KCL2 222159Z 10009KT 11/10 A2986 RMK A01 T01140100  RH  091%=      5-min Rain = 0
KCL2 222200Z 10010KT 11/10 A2986 RMK A01 T01140100  RH  091%=      5-min Rain = 0
KCL2 222201Z 10010KT 11/10 A2986 RMK A01 T01130099  RH  091%=      5-min Rain = 0
KCL2 222202Z 10009KT 11/10 A2986 RMK A01 T01130099  RH  091%=      5-min Rain = 0
KCL2 222203Z 11010KT 11/10 A2986 RMK A01 T01130100  RH  092%=      5-min Rain = 0
KCL2 222204Z 11010KT 11/10 A2986 RMK A01 T01130100  RH  092%=      5-min Rain = 0
KCL2 222205Z 12009KT 11/10 A2986 RMK A01 T01130099  RH  091%=      5-min Rain = 0
KCL2 222206Z 12009KT 11/10 A2986 RMK A01 T01130100  RH  091%=      5-min Rain = 0
KCL2 222207Z 11009KT 11/10 A2986 RMK A01 T01130099  RH  091%=      5-min Rain = 0
KCL2 222208Z 12008KT 11/10 A2986 RMK A01 T01130099  RH  091%=      5-min Rain = 0
KCL2 222209Z 11007KT 11/10 A2986 RMK A01 T01130099  RH  091%=      5-min Rain = 0
KCL2 222210Z 11008KT 11/10 A2986 RMK A01 T01140100  RH  091%=      5-min Rain = 0
KCL2 222211Z 10008KT 11/10 A2986 RMK A01 T01140100  RH  091%=      5-min Rain = 0
KCL2 222212Z 10008KT 11/10 A2986 RMK A01 T01140100  RH  091%=      5-min Rain = 0
KCL2 222213Z 10008KT 11/10 A2986 RMK A01 T01130099  RH  091%=      5-min Rain = 0
KCL2 222214Z 10010KT 11/10 A2986 RMK A01 T01130098  RH  091%=      5-min Rain = 0
KCL2 222215Z 10008KT 11/10 A2986 RMK A01 T01120098  RH  091%=      5-min Rain = 0
KCL2 222216Z 11008KT 11/10 A2986 RMK A01 T01110098  RH  091%=      5-min Rain = 0
KCL2 222217Z 11008KT 11/10 A2986 RMK A01 T01110098  RH  092%=      5-min Rain = 0
KCL2 222218Z 10009KT 11/10 A2986 RMK A01 T01110098  RH  092%=      5-min Rain = 0
KCL2 222219Z 09007KT 11/10 A2986 RMK A01 T01110097  RH  091%=      5-min Rain = 0
KCL2 222220Z 11007KT 11/10 A2986 RMK A01 T01110098  RH  092%=      5-min Rain = 0
KCL2 222221Z 11006KT 11/10 A2986 RMK A01 T01110098  RH  092%=      5-min Rain = 0
KCL2 222222Z 10008KT 11/10 A2986 RMK A01 T01120098  RH  091%=      5-min Rain = 0
KCL2 222223Z 09008KT 11/10 A2986 RMK A01 T01120098  RH  091%=      5-min Rain = 0
KCL2 222224Z 09008KT 11/10 A2986 RMK A01 T01120098  RH  091%=      5-min Rain = 0
KCL2 222225Z 10007KT 11/10 A2986 RMK A01 T01120098  RH  091%=      5-min Rain = 0
KCL2 222226Z 08009KT 11/10 A2986 RMK A01 T01120098  RH  091%=      5-min Rain = 0
KCL2 222227Z 09007KT 11/10 A2986 RMK A01 T01120098  RH  091%=      5-min Rain = 0
KCL2 222228Z 09008KT 11/10 A2986 RMK A01 T01120098  RH  091%=      5-min Rain = 0
KCL2 222229Z 10007KT 11/10 A2986 RMK A01 T01110098  RH  091%=      5-min Rain = 0
KCL2 222230Z 11009KT 11/10 A2986 RMK A01 T01110098  RH  091%=      5-min Rain = 0
KCL2 222231Z 10007KT 11/10 A2986 RMK A01 T01110098  RH  091%=      5-min Rain = 0
KCL2 222232Z 09007KT 11/10 A2986 RMK A01 T01120098  RH  091%=      5-min Rain = 0
KCL2 222233Z 10008KT 11/10 A2986 RMK A01 T01120098  RH  091%=      5-min Rain = 0
KCL2 222234Z 10007KT 11/10 A2986 RMK A01 T01120098  RH  091%=      5-min Rain = 0
KCL2 222235Z 10006KT 11/10 A2986 RMK A01 T01120098  RH  091%=      5-min Rain = 0
KCL2 222236Z 10007KT 11/10 A2986 RMK A01 T01120098  RH  091%=      5-min Rain = 0
KCL2 222237Z 09007KT 11/10 A2986 RMK A01 T01120098  RH  091%=      5-min Rain = 0
KCL2 222238Z 09009KT 11/10 A2986 RMK A01 T01120098  RH  091%=      5-min Rain = 0
KCL2 222239Z 10009KT 11/10 A2986 RMK A01 T01110097  RH  091%=      5-min Rain = 0
KCL2 222240Z 09008KT 11/10 A2986 RMK A01 T01110097  RH  091%=      5-min Rain = 0
KCL2 222241Z 09008KT 11/10 A2986 RMK A01 T01100097  RH  091%=      5-min Rain = 0
KCL2 222242Z 09009KT 11/10 A2986 RMK A01 T01100097  RH  092%=      5-min Rain = 0
KCL2 222243Z 09009KT 11/10 A2986 RMK A01 T01100097  RH  092%=      5-min Rain = 0
KCL2 222244Z 09008KT 11/10 A2986 RMK A01 T01090096  RH  092%=      5-min Rain = 0
KCL2 222245Z 09008KT 11/10 A2986 RMK A01 T01090097  RH  092%=      5-min Rain = 0
KCL2 222246Z 09008KT 11/10 A2986 RMK A01 T01090097  RH  092%=      5-min Rain = 0
KCL2 222247Z 09007KT 11/10 A2985 RMK A01 T01090097  RH  092%=      5-min Rain = 0
KCL2 222248Z 09007KT 11/10 A2985 RMK A01 T01090097  RH  092%=      5-min Rain = 0
KCL2 222249Z 09008KT 11/10 A2985 RMK A01 T01090097  RH  092%=      5-min Rain = 0
KCL2 222250Z 09008KT 11/10 A2986 RMK A01 T01100097  RH  092%=      5-min Rain = 0
KCL2 222251Z 09008KT 11/10 A2986 RMK A01 T01090097  RH  092%=      5-min Rain = 0
KCL2 222252Z 09008KT 11/10 A2986 RMK A01 T01090097  RH  092%=      5-min Rain = 0
KCL2 222253Z 09007KT 11/10 A2986 RMK A01 T01090097  RH  092%=      5-min Rain = 0
KCL2 222254Z 08007KT 11/10 A2985 RMK A01 T01090097  RH  092%=      5-min Rain = 0
KCL2 222255Z 07008KT 11/10 A2985 RMK A01 T01090097  RH  092%=      5-min Rain = 0
KCL2 222256Z 07010KT 11/10 A2985 RMK A01 T01080096  RH  092%=      5-min Rain = 0
KCL2 222257Z 07008KT 11/10 A2985 RMK A01 T01080096  RH  093%=      5-min Rain = 0
KCL2 222258Z 08008KT 11/10 A2985 RMK A01 T01070096  RH  093%=      5-min Rain = 0
KCL2 222259Z 07008KT 11/10 A2985 RMK A01 T01070096  RH  093%=      5-min Rain = 0
KCL2 222300Z 08009KT 11/10 A2985 RMK A01 T01070097  RH  093%=      5-min Rain = 0
KCL2 222301Z 08010KT 11/10 A2985 RMK A01 T01070097  RH  093%=      5-min Rain = 0
KCL2 222302Z 08009KT 11/10 A2985 RMK A01 T01070097  RH  094%=      5-min Rain = 0
KCL2 222303Z 08008KT 11/10 A2985 RMK A01 T01070097  RH  094%=      5-min Rain = 0
KCL2 222304Z 08009KT 11/10 A2985 RMK A01 T01070097  RH  094%=      5-min Rain = 0
KCL2 222305Z 09009KT 11/10 A2985 RMK A01 T01070097  RH  094%=      5-min Rain = 0
KCL2 222306Z 09009KT 11/10 A2985 RMK A01 T01070097  RH  094%=      5-min Rain = 0
KCL2 222307Z 09010KT 11/10 A2985 RMK A01 T01070097  RH  094%=      5-min Rain = 0
KCL2 222308Z 09010KT 11/10 A2984 RMK A01 T01070098  RH  094%=      5-min Rain = 0
KCL2 222309Z 09011KT 11/10 A2984 RMK A01 T01070097  RH  094%=      5-min Rain = 0
KCL2 222310Z 09009KT 11/10 A2984 RMK A01 T01070097  RH  094%=      5-min Rain = 0
KCL2 222311Z 09007KT 11/10 A2984 RMK A01 T01070097  RH  094%=      5-min Rain = 0
KCL2 222312Z 08007KT 11/10 A2984 RMK A01 T01070097  RH  094%=      5-min Rain = 0
KCL2 222313Z 09010KT 11/10 A2984 RMK A01 T01080098  RH  094%=      5-min Rain = 0
KCL2 222314Z 10010KT 11/10 A2984 RMK A01 T01080097  RH  093%=      5-min Rain = 0
KCL2 222315Z 10009KT 11/10 A2984 RMK A01 T01070097  RH  093%=      5-min Rain = 0
KCL2 222316Z 10008KT 11/10 A2984 RMK A01 T01070097  RH  094%=      5-min Rain = 0
KCL2 222317Z 08008KT 11/10 A2984 RMK A01 T01070097  RH  094%=      5-min Rain = 0
KCL2 222318Z 09008KT 11/10 A2984 RMK A01 T01070097  RH  093%=      5-min Rain = 0
KCL2 222319Z 09009KT 11/10 A2984 RMK A01 T01070097  RH  094%=      5-min Rain = 0
KCL2 222320Z 08010KT 11/10 A2984 RMK A01 T01070097  RH  094%=      5-min Rain = 0
KCL2 222321Z 08009KT 11/10 A2984 RMK A01 T01070097  RH  094%=      5-min Rain = 0
KCL2 222322Z 08010KT 11/10 A2984 RMK A01 T01060097  RH  094%=      5-min Rain = 0
KCL2 222323Z 09009KT 11/10 A2984 RMK A01 T01060096  RH  094%=      5-min Rain = 0
KCL2 222324Z 09009KT 11/10 A2984 RMK A01 T01060096  RH  094%=      5-min Rain = 0
KCL2 222325Z 09009KT 11/10 A2984 RMK A01 T01060097  RH  094%=      5-min Rain = 0
KCL2 222326Z 09008KT 11/10 A2984 RMK A01 T01060097  RH  094%=      5-min Rain = 0
KCL2 222327Z 08011KT 11/10 A2984 RMK A01 T01060097  RH  094%=      5-min Rain = 0
KCL2 222328Z 08010KT 11/10 A2984 RMK A01 T01060096  RH  094%=      5-min Rain = 0
KCL2 222329Z 09009KT 11/10 A2984 RMK A01 T01050096  RH  094%=      5-min Rain = 0
KCL2 222330Z 08009KT 11/10 A2984 RMK A01 T01050096  RH  094%=      5-min Rain = 0
KCL2 222331Z 09008KT 11/10 A2984 RMK A01 T01050096  RH  094%=      5-min Rain = 0
KCL2 222332Z 09008KT 11/10 A2984 RMK A01 T01050096  RH  094%=      5-min Rain = 0
KCL2 222333Z 10007KT 11/10 A2984 RMK A01 T01050096  RH  094%=      5-min Rain = 0
KCL2 222334Z 09009KT 11/10 A2984 RMK A01 T01050097  RH  094%=      5-min Rain = 0
KCL2 222335Z 09009KT 11/10 A2984 RMK A01 T01060096  RH  094%=      5-min Rain = 0
KCL2 222336Z 09010KT 11/10 A2984 RMK A01 T01050096  RH  094%=      5-min Rain = 0
KCL2 222337Z 09009KT 11/10 A2984 RMK A01 T01050096  RH  094%=      5-min Rain = 0
KCL2 222338Z 09011KT 11/10 A2984 RMK A01 T01050096  RH  094%=      5-min Rain = 0
KCL2 222339Z 10009KT 10/10 A2984 RMK A01 T01040096  RH  094%=      5-min Rain = 0
KCL2 222340Z 09009KT 10/10 A2984 RMK A01 T01040096  RH  095%=      5-min Rain = 0
KCL2 222341Z 10009KT 10/10 A2984 RMK A01 T01040096  RH  095%=      5-min Rain = 0
KCL2 222342Z 10007KT 10/10 A2984 RMK A01 T01040096  RH  095%=      5-min Rain = 0
KCL2 222343Z 10007KT 10/10 A2984 RMK A01 T01040096  RH  095%=      5-min Rain = 0
KCL2 222344Z 10008KT 10/10 A2984 RMK A01 T01040096  RH  095%=      5-min Rain = 0
KCL2 222345Z 09009KT 10/10 A2984 RMK A01 T01040096  RH  095%=      5-min Rain = 0
KCL2 222346Z 10008KT 10/10 A2984 RMK A01 T01040096  RH  095%=      5-min Rain = 0
KCL2 222347Z 09009KT 10/10 A2984 RMK A01 T01040096  RH  095%=      5-min Rain = 0
KCL2 222348Z 09009KT 10/10 A2984 RMK A01 T01040096  RH  095%=      5-min Rain = 0
KCL2 222349Z 09009KT 10/10 A2984 RMK A01 T01040096  RH  095%=      5-min Rain = 0
KCL2 222350Z 09011KT 10/10 A2984 RMK A01 T01040095  RH  095%=      5-min Rain = 0
KCL2 222351Z 09009KT 10/10 A2984 RMK A01 T01040096  RH  095%=      5-min Rain = 0
KCL2 222352Z 09008KT 10/10 A2984 RMK A01 T01040096  RH  095%=      5-min Rain = 0
KCL2 222353Z 09009KT 10/10 A2984 RMK A01 T01040096  RH  095%=      5-min Rain = 0
KCL2 222354Z 09007KT 10/10 A2984 RMK A01 T01040096  RH  095%=      5-min Rain = 0
KCL2 222355Z 09008KT 10/10 A2984 RMK A01 T01040096  RH  095%=      5-min Rain = 0
KCL2 222356Z 09008KT 10/10 A2984 RMK A01 T01040096  RH  095%=      5-min Rain = 0
KCL2 222357Z 09008KT 10/10 A2984 RMK A01 T01040096  RH  095%=      5-min Rain = 0
KCL2 222358Z 09008KT 10/10 A2984 RMK A01 T01030096  RH  095%=      5-min Rain = 0
KCL2 222359Z 09008KT 10/10 A2984 RMK A01 T01030096  RH  095%=      5-min Rain = 0
KCL2 230000Z 09007KT 10/10 A2984 RMK A01 T01030096  RH  095%=      5-min Rain = 0
KCL2 230001Z 09008KT 10/10 A2984 RMK A01 T01030096  RH  095%=      5-min Rain = 0
KCL2 230002Z 08007KT 10/10 A2984 RMK A01 T01030096  RH  095%=      5-min Rain = 0
KCL2 230003Z 09006KT 10/10 A2984 RMK A01 T01030096  RH  095%=      5-min Rain = 0
KCL2 230004Z 10006KT 10/10 A2984 RMK A01 T01030096  RH  095%=      5-min Rain = 0
KCL2 230005Z 11006KT 10/10 A2984 RMK A01 T01040096  RH  095%=      5-min Rain = 0
KCL2 230006Z 10009KT 10/10 A2984 RMK A01 T01030096  RH  095%=      5-min Rain = 0
KCL2 230007Z 10008KT 10/10 A2984 RMK A01 T01030096  RH  095%=      5-min Rain = 0
KCL2 230008Z 10009KT 10/10 A2984 RMK A01 T01030097  RH  096%=      5-min Rain = 0
KCL2 230009Z 10007KT 10/10 A2984 RMK A01 T01030097  RH  096%=      5-min Rain = 0
KCL2 230010Z 09006KT 10/10 A2984 RMK A01 T01030097  RH  096%=      5-min Rain = 0
KCL2 230011Z 10005KT 10/10 A2984 RMK A01 T01030097  RH  096%=      5-min Rain = 0
KCL2 230012Z 10006KT 10/10 A2984 RMK A01 T01030097  RH  096%=      5-min Rain = 0
KCL2 230013Z 10007KT 10/10 A2984 RMK A01 T01030097  RH  096%=      5-min Rain = 0
KCL2 230014Z 10007KT 10/10 A2984 RMK A01 T01030097  RH  096%=      5-min Rain = 0
KCL2 230015Z 10006KT 10/10 A2984 RMK A01 T01030097  RH  096%=      5-min Rain = 0
KCL2 230016Z 10007KT 10/10 A2984 RMK A01 T01030097  RH  096%=      5-min Rain = 0
KCL2 230017Z 11009KT 10/10 A2984 RMK A01 T01030097  RH  096%=      5-min Rain = 0
KCL2 230018Z 10010KT 10/10 A2984 RMK A01 T01030097  RH  096%=      5-min Rain = 0
KCL2 230019Z 10009KT 10/10 A2984 RMK A01 T01030097  RH  096%=      5-min Rain = 0
KCL2 230020Z 10007KT 10/10 A2984 RMK A01 T01030097  RH  096%=      5-min Rain = 0
KCL2 230021Z 10008KT 10/10 A2984 RMK A01 T01030097  RH  096%=      5-min Rain = 0
KCL2 230022Z 10008KT 10/10 A2984 RMK A01 T01030097  RH  096%=      5-min Rain = 0
KCL2 230023Z 10008KT 10/10 A2984 RMK A01 T01030097  RH  096%=      5-min Rain = 0
KCL2 230024Z 10007KT 10/10 A2984 RMK A01 T01030097  RH  096%=      5-min Rain = 0
KCL2 230025Z 09007KT 10/10 A2984 RMK A01 T01030097  RH  096%=      5-min Rain = 0
KCL2 230026Z 10007KT 10/10 A2984 RMK A01 T01030097  RH  096%=      5-min Rain = 0
KCL2 230027Z 10007KT 10/10 A2984 RMK A01 T01030097  RH  096%=      5-min Rain = 0
KCL2 230028Z 10008KT 10/10 A2984 RMK A01 T01030097  RH  096%=      5-min Rain = 0
KCL2 230029Z 10009KT 10/10 A2984 RMK A01 T01030097  RH  096%=      5-min Rain = 0
KCL2 230030Z 10009KT 10/10 A2984 RMK A01 T01030097  RH  096%=      5-min Rain = 0
KCL2 230031Z 11009KT 10/10 A2984 RMK A01 T01030097  RH  096%=      5-min Rain = 0
KCL2 230032Z 11009KT 10/10 A2984 RMK A01 T01030097  RH  096%=      5-min Rain = 0
KCL2 230033Z 10008KT 10/10 A2984 RMK A01 T01030097  RH  096%=      5-min Rain = 0
KCL2 230034Z 10009KT 10/10 A2983 RMK A01 T01030097  RH  096%=      5-min Rain = 0
KCL2 230035Z 10009KT 10/10 A2983 RMK A01 T01030097  RH  096%=      5-min Rain = 0
KCL2 230036Z 10009KT 10/10 A2983 RMK A01 T01030097  RH  096%=      5-min Rain = 0
KCL2 230037Z 10009KT 10/10 A2983 RMK A01 T01030097  RH  096%=      5-min Rain = 0
KCL2 230038Z 09008KT 10/10 A2983 RMK A01 T01030097  RH  096%=      5-min Rain = 0
KCL2 230039Z 10009KT 10/10 A2983 RMK A01 T01030097  RH  096%=      5-min Rain = 0
KCL2 230040Z 11008KT 10/10 A2983 RMK A01 T01030097  RH  096%=      5-min Rain = 0
KCL2 230041Z 10008KT 10/10 A2983 RMK A01 T01030097  RH  096%=      5-min Rain = 0
KCL2 230042Z 10007KT 10/10 A2983 RMK A01 T01030097  RH  096%=      5-min Rain = 0
KCL2 230043Z 10006KT 10/10 A2983 RMK A01 T01030097  RH  096%=      5-min Rain = 0
KCL2 230044Z 10009KT 10/10 A2983 RMK A01 T01030097  RH  096%=      5-min Rain = 0
KCL2 230045Z 10008KT 10/10 A2983 RMK A01 T01030097  RH  096%=      5-min Rain = 0
KCL2 230046Z 10006KT 10/10 A2984 RMK A01 T01030097  RH  096%=      5-min Rain = 0
KCL2 230047Z 10006KT 10/10 A2984 RMK A01 T01030097  RH  096%=      5-min Rain = 0
KCL2 230048Z 10007KT 10/10 A2984 RMK A01 T01030097  RH  096%=      5-min Rain = 0
KCL2 230049Z 10007KT 10/10 A2984 RMK A01 T01030097  RH  096%=      5-min Rain = 0
KCL2 230050Z 09007KT 10/10 A2984 RMK A01 T01030097  RH  096%=      5-min Rain = 0
KCL2 230051Z 10008KT 10/10 A2984 RMK A01 T01030097  RH  096%=      5-min Rain = 0
KCL2 230052Z 09007KT 10/10 A2984 RMK A01 T01030097  RH  096%=      5-min Rain = 0
KCL2 230053Z 10007KT 10/10 A2984 RMK A01 T01030096  RH  096%=      5-min Rain = 0
KCL2 230054Z 10005KT 10/10 A2984 RMK A01 T01030097  RH  096%=      5-min Rain = 0
KCL2 230055Z 09004KT 10/10 A2984 RMK A01 T01020096  RH  096%=      5-min Rain = 0
KCL2 230056Z 09006KT 10/10 A2984 RMK A01 T01020096  RH  096%=      5-min Rain = 0
KCL2 230057Z 09005KT 10/10 A2984 RMK A01 T01020097  RH  096%=      5-min Rain = 0
KCL2 230058Z 09005KT 10/10 A2984 RMK A01 T01020097  RH  096%=      5-min Rain = 0
KCL2 230059Z 09005KT 10/10 A2984 RMK A01 T01020097  RH  096%=      5-min Rain = 0
KCL2 230100Z 09005KT 10/10 A2984 RMK A01 T01020096  RH  096%=      5-min Rain = 0
KCL2 230101Z 09005KT 10/10 A2984 RMK A01 T01020097  RH  096%=      5-min Rain = 0
KCL2 230102Z 09007KT 10/10 A2984 RMK A01 T01020097  RH  096%=      5-min Rain = 0
KCL2 230103Z 09006KT 10/10 A2984 RMK A01 T01020097  RH  096%=      5-min Rain = 0
KCL2 230104Z 08005KT 10/10 A2984 RMK A01 T01020097  RH  096%=      5-min Rain = 0
KCL2 230105Z 08005KT 10/10 A2984 RMK A01 T01020097  RH  096%=      5-min Rain = 0
KCL2 230106Z 08007KT 10/10 A2984 RMK A01 T01030097  RH  096%=      5-min Rain = 0
KCL2 230107Z 09005KT 10/10 A2984 RMK A01 T01030097  RH  096%=      5-min Rain = 0
KCL2 230108Z 08006KT 10/10 A2984 RMK A01 T01030096  RH  096%=      5-min Rain = 0
KCL2 230109Z 09006KT 10/10 A2984 RMK A01 T01030096  RH  096%=      5-min Rain = 0
KCL2 230110Z 09006KT 10/10 A2984 RMK A01 T01030096  RH  096%=      5-min Rain = 0
KCL2 230111Z 09005KT 10/10 A2984 RMK A01 T01030097  RH  096%=      5-min Rain = 0
KCL2 230112Z 08007KT 10/10 A2984 RMK A01 T01030096  RH  096%=      5-min Rain = 0
KCL2 230113Z 09007KT 10/10 A2984 RMK A01 T01030097  RH  096%=      5-min Rain = 0
KCL2 230114Z 09006KT 10/10 A2985 RMK A01 T01030097  RH  096%=      5-min Rain = 0
KCL2 230115Z 09008KT 10/10 A2984 RMK A01 T01030097  RH  096%=      5-min Rain = 0
KCL2 230116Z 09008KT 10/10 A2984 RMK A01 T01030096  RH  096%=      5-min Rain = 0
KCL2 230117Z 09008KT 10/10 A2984 RMK A01 T01030097  RH  096%=      5-min Rain = 0
KCL2 230118Z 08007KT 10/10 A2984 RMK A01 T01030097  RH  096%=      5-min Rain = 0
KCL2 230119Z 09009KT 10/10 A2984 RMK A01 T01030097  RH  096%=      5-min Rain = 0
KCL2 230120Z 09008KT 10/10 A2985 RMK A01 T01030097  RH  096%=      5-min Rain = 0
KCL2 230121Z 09007KT 10/10 A2985 RMK A01 T01030097  RH  096%=      5-min Rain = 0
KCL2 230122Z 08007KT 10/10 A2984 RMK A01 T01030097  RH  096%=      5-min Rain = 0
KCL2 230123Z 09007KT 10/10 A2984 RMK A01 T01020096  RH  096%=      5-min Rain = 0
KCL2 230124Z 08008KT 10/10 A2984 RMK A01 T01020096  RH  096%=      5-min Rain = 0
KCL2 230125Z 08009KT 10/10 A2984 RMK A01 T01020096  RH  096%=      5-min Rain = 0
KCL2 230126Z 09008KT 10/10 A2984 RMK A01 T01020097  RH  096%=      5-min Rain = 0
KCL2 230127Z 09007KT 10/10 A2984 RMK A01 T01020097  RH  096%=      5-min Rain = 0
KCL2 230128Z 09007KT 10/10 A2984 RMK A01 T01020096  RH  096%=      5-min Rain = 0
KCL2 230129Z 10007KT 10/10 A2984 RMK A01 T01020096  RH  096%=      5-min Rain = 0
KCL2 230130Z 09008KT 10/10 A2984 RMK A01 T01020096  RH  096%=      5-min Rain = 0
KCL2 230131Z 10006KT 10/10 A2984 RMK A01 T01020096  RH  096%=      5-min Rain = 0
KCL2 230132Z 09006KT 10/10 A2985 RMK A01 T01020097  RH  096%=      5-min Rain = 0
KCL2 230133Z 10008KT 10/10 A2985 RMK A01 T01020097  RH  097%=      5-min Rain = 0
KCL2 230134Z 10009KT 10/10 A2985 RMK A01 T01020096  RH  097%=      5-min Rain = 0
KCL2 230135Z 10010KT 10/10 A2985 RMK A01 T01020097  RH  097%=      5-min Rain = 0
KCL2 230136Z 10008KT 10/10 A2985 RMK A01 T01020097  RH  097%=      5-min Rain = 0
KCL2 230137Z 11008KT 10/10 A2985 RMK A01 T01020097  RH  097%=      5-min Rain = 0
KCL2 230138Z 10007KT 10/10 A2985 RMK A01 T01020096  RH  097%=      5-min Rain = 0
KCL2 230139Z 10008KT 10/10 A2985 RMK A01 T01010096  RH  097%=      5-min Rain = 0
KCL2 230140Z 10007KT 10/10 A2985 RMK A01 T01010096  RH  097%=      5-min Rain = 0
KCL2 230141Z 11009KT 10/10 A2985 RMK A01 T01010097  RH  097%=      5-min Rain = 0
KCL2 230142Z 10008KT 10/10 A2985 RMK A01 T01010097  RH  097%=      5-min Rain = 0
KCL2 230143Z 10010KT 10/10 A2985 RMK A01 T01010096  RH  097%=      5-min Rain = 0
KCL2 230144Z 10010KT 10/10 A2985 RMK A01 T01010096  RH  097%=      5-min Rain = 0
KCL2 230145Z 10010KT 10/10 A2985 RMK A01 T01010096  RH  097%=      5-min Rain = 0
KCL2 230146Z 11010KT 10/10 A2985 RMK A01 T01010096  RH  097%=      5-min Rain = 0
KCL2 230147Z 11010KT 10/10 A2985 RMK A01 T01010097  RH  097%=      5-min Rain = 0
KCL2 230148Z 11009KT 10/10 A2985 RMK A01 T01010097  RH  097%=      5-min Rain = 0
KCL2 230149Z 11011KT 10/10 A2985 RMK A01 T01010096  RH  097%=      5-min Rain = 0
KCL2 230150Z 10010KT 10/10 A2985 RMK A01 T01010097  RH  097%=      5-min Rain = 0
KCL2 230151Z 10011KT 10/10 A2985 RMK A01 T01010096  RH  097%=      5-min Rain = 0
KCL2 230152Z 10009KT 10/10 A2985 RMK A01 T01010096  RH  097%=      5-min Rain = 0
KCL2 230153Z 10008KT 10/10 A2985 RMK A01 T01000096  RH  097%=      5-min Rain = 0
KCL2 230154Z 10008KT 10/10 A2985 RMK A01 T01000096  RH  097%=      5-min Rain = 0
KCL2 230155Z 09008KT 10/10 A2985 RMK A01 T01000096  RH  097%=      5-min Rain = 0
KCL2 230156Z 10008KT 10/10 A2985 RMK A01 T01000096  RH  097%=      5-min Rain = 0
KCL2 230157Z 10010KT 10/10 A2985 RMK A01 T01000096  RH  097%=      5-min Rain = 0
KCL2 230158Z 10008KT 10/10 A2985 RMK A01 T01000096  RH  097%=      5-min Rain = 0
KCL2 230159Z 10008KT 10/10 A2985 RMK A01 T01000096  RH  097%=      5-min Rain = 0
KCL2 230200Z 10008KT 10/10 A2985 RMK A01 T01000096  RH  098%=      5-min Rain = 0
KCL2 230201Z 10008KT 10/10 A2985 RMK A01 T01000096  RH  098%=      5-min Rain = 0
KCL2 230202Z 11009KT 10/10 A2985 RMK A01 T01000096  RH  098%=      5-min Rain = 0
KCL2 230203Z 11010KT 10/10 A2985 RMK A01 T01000096  RH  098%=      5-min Rain = 0
KCL2 230204Z 11009KT 10/10 A2985 RMK A01 T00990096  RH  098%=      5-min Rain = 0
KCL2 230205Z 11009KT 10/10 A2985 RMK A01 T00990096  RH  098%=      5-min Rain = 0
KCL2 230206Z 11009KT 10/10 A2985 RMK A01 T00990096  RH  098%=      5-min Rain = 0
KCL2 230207Z 10009KT 10/10 A2985 RMK A01 T00990096  RH  098%=      5-min Rain = 0
KCL2 230208Z 10010KT 10/10 A2985 RMK A01 T00990096  RH  098%=      5-min Rain = 0
KCL2 230209Z 11010KT 10/10 A2985 RMK A01 T00990095  RH  098%=      5-min Rain = 0
KCL2 230210Z 11010KT 10/10 A2985 RMK A01 T00990096  RH  098%=      5-min Rain = 0
KCL2 230211Z 11011KT 10/10 A2985 RMK A01 T00990096  RH  098%=      5-min Rain = 0
KCL2 230212Z 11009KT 10/10 A2985 RMK A01 T00990096  RH  098%=      5-min Rain = 0
KCL2 230213Z 11010KT 10/10 A2985 RMK A01 T00980095  RH  098%=      5-min Rain = 0
KCL2 230214Z 11011KT 10/10 A2985 RMK A01 T00980096  RH  098%=      5-min Rain = 0
KCL2 230215Z 10012KT 10/10 A2985 RMK A01 T00980095  RH  098%=      5-min Rain = 0
KCL2 230216Z 10010KT 10/10 A2985 RMK A01 T00980096  RH  098%=      5-min Rain = 0
KCL2 230217Z 10009KT 10/10 A2985 RMK A01 T00980095  RH  098%=      5-min Rain = 0
KCL2 230218Z 10009KT 10/10 A2985 RMK A01 T00980096  RH  099%=      5-min Rain = 0
KCL2 230219Z 10010KT 10/10 A2985 RMK A01 T00980096  RH  099%=      5-min Rain = 0
KCL2 230220Z 11010KT 10/10 A2985 RMK A01 T00980096  RH  099%=      5-min Rain = 0
KCL2 230221Z 11009KT 10/10 A2985 RMK A01 T00980096  RH  099%=      5-min Rain = 0
KCL2 230222Z 11009KT 10/10 A2985 RMK A01 T00970096  RH  099%=      5-min Rain = 0
KCL2 230223Z 10009KT 10/10 A2985 RMK A01 T00970096  RH  099%=      5-min Rain = 0
KCL2 230224Z 11009KT 10/10 A2985 RMK A01 T00970096  RH  099%=      5-min Rain = 0
KCL2 230225Z 11008KT 10/10 A2985 RMK A01 T00970096  RH  099%=      5-min Rain = 0
KCL2 230226Z 10008KT 10/10 A2985 RMK A01 T00970096  RH  099%=      5-min Rain = 0
KCL2 230227Z 10008KT 10/10 A2985 RMK A01 T00970096  RH  099%=      5-min Rain = 0
KCL2 230228Z 10009KT 10/10 A2985 RMK A01 T00970096  RH  099%=      5-min Rain = 0
KCL2 230229Z 10010KT 10/10 A2985 RMK A01 T00970096  RH  099%=      5-min Rain = 0
KCL2 230230Z 11009KT 10/10 A2985 RMK A01 T00970096  RH  099%=      5-min Rain = 0
KCL2 230231Z 11010KT 10/10 A2985 RMK A01 T00970096  RH  099%=      5-min Rain = 0
KCL2 230232Z 11009KT 10/10 A2985 RMK A01 T00970096  RH  099%=      5-min Rain = 0
KCL2 230233Z 11010KT 10/10 A2985 RMK A01 T00970096  RH  099%=      5-min Rain = 0
KCL2 230234Z 11009KT 10/10 A2985 RMK A01 T00970096  RH  099%=      5-min Rain = 0
KCL2 230235Z 11008KT 10/10 A2984 RMK A01 T00970096  RH  100%=      5-min Rain = 0
KCL2 230236Z 11010KT 10/10 A2984 RMK A01 T00970096  RH  100%=      5-min Rain = 0
KCL2 230237Z 11009KT 10/10 A2984 RMK A01 T00970096  RH  100%=      5-min Rain = 0
KCL2 230238Z 11010KT 10/10 A2984 RMK A01 T00970096  RH  100%=      5-min Rain = 0
KCL2 230239Z 11011KT 10/10 A2984 RMK A01 T00970096  RH  100%=      5-min Rain = 0
KCL2 230240Z 11010KT 10/10 A2984 RMK A01 T00970096  RH  100%=      5-min Rain = 0
KCL2 230241Z 10010KT 10/10 A2984 RMK A01 T00970096  RH  100%=      5-min Rain = 0
KCL2 230242Z 11011KT 10/10 A2984 RMK A01 T00960096  RH  100%=      5-min Rain = 0
KCL2 230243Z 11013KT 10/10 A2984 RMK A01 T00960096  RH  100%=      5-min Rain = 0
KCL2 230244Z 10012KT 10/10 A2984 RMK A01 T00960096  RH  100%=      5-min Rain = 0
KCL2 230245Z 11013KT 10/10 A2984 RMK A01 T00960096  RH  100%=      5-min Rain = 0
KCL2 230246Z 11014KT 10/10 A2984 RMK A01 T00960096  RH  100%=      5-min Rain = 0
KCL2 230247Z 10013KT 10/10 A2983 RMK A01 T00960096  RH  100%=      5-min Rain = 0
KCL2 230248Z 11014KT 10/10 A2983 RMK A01 T00950095  RH  100%=      5-min Rain = 0
KCL2 230249Z 11010KT 10/10 A2983 RMK A01 T00950095  RH  100%=      5-min Rain = 0
KCL2 230250Z 10012KT 10/10 A2983 RMK A01 T00950095  RH  100%=      5-min Rain = 0
KCL2 230251Z 11014KT 10/10 A2983 RMK A01 T00950095  RH  100%=      5-min Rain = 0
KCL2 230252Z 11015KT 10/10 A2983 RMK A01 T00950095  RH  100%=      5-min Rain = 0
KCL2 230253Z 10013KT 10/10 A2983 RMK A01 T00950095  RH  100%=      5-min Rain = 0
KCL2 230254Z 11012KT 10/10 A2982 RMK A01 T00950095  RH  100%=      5-min Rain = 0
KCL2 230255Z 11012KT 10/10 A2982 RMK A01 T00950095  RH  100%=      5-min Rain = 0
KCL2 230256Z 11013KT 10/10 A2982 RMK A01 T00950095  RH  100%=      5-min Rain = 0
KCL2 230257Z 11012G18KT 10/10 A2982 RMK A01 T00950095  RH  100%=      5-min Rain = 0
KCL2 230258Z 11016KT 10/10 A2982 RMK A01 T00950095  RH  100%=      5-min Rain = 0
KCL2 230259Z 11014KT 09/09 A2982 RMK A01 T00940094  RH  100%=      5-min Rain = 0
KCL2 230300Z 11013KT 09/09 A2982 RMK A01 T00940094  RH  100%=      5-min Rain = 0
KCL2 230301Z 11011KT 09/09 A2982 RMK A01 T00940094  RH  100%=      5-min Rain = 0
KCL2 230302Z 11011KT 10/10 A2982 RMK A01 T00950095  RH  100%=      5-min Rain = 0
KCL2 230303Z 11012KT 09/10 A2981 RMK A01 T00940095  RH  100%=      5-min Rain = 0
KCL2 230304Z 11012G17KT 10/10 A2981 RMK A01 T00950095  RH  100%=      5-min Rain = 0
KCL2 230305Z 11013KT 09/09 A2981 RMK A01 T00940094  RH  100%=      5-min Rain = 0
KCL2 230306Z 11012KT 09/09 A2981 RMK A01 T00940094  RH  100%=      5-min Rain = 0
KCL2 230307Z 12012KT 09/09 A2981 RMK A01 T00940094  RH  100%=      5-min Rain = 0
KCL2 230308Z 12012KT 09/09 A2981 RMK A01 T00940094  RH  100%=      5-min Rain = 0
KCL2 230309Z 11015KT 09/09 A2981 RMK A01 T00940094  RH  100%=      5-min Rain = 0
KCL2 230310Z 12014KT 09/09 A2981 RMK A01 T00940094  RH  100%=      5-min Rain = 0
KCL2 230311Z 11013KT 09/09 A2981 RMK A01 T00940094  RH  100%=      5-min Rain = 0
KCL2 230312Z 12013KT 10/10 A2981 RMK A01 T00950095  RH  100%=      5-min Rain = 0
KCL2 230313Z 12011KT 10/10 A2981 RMK A01 T00950095  RH  100%=      5-min Rain = 0
KCL2 230314Z 12011KT 09/10 A2981 RMK A01 T00940095  RH  100%=      5-min Rain = 0
KCL2 230315Z 12012KT 09/09 A298 RMK A01 T00940094  RH  100%=      5-min Rain = 0
KCL2 230316Z 11010KT 10/10 A2981 RMK A01 T00950095  RH  100%=      5-min Rain = 0
KCL2 230317Z 12013KT 10/10 A2981 RMK A01 T00950095  RH  100%=      5-min Rain = 0
KCL2 230318Z 12013KT 10/10 A2981 RMK A01 T00950095  RH  100%=      5-min Rain = 0
KCL2 230319Z 12014KT 10/10 A2981 RMK A01 T00950095  RH  100%=      5-min Rain = 0
KCL2 230320Z 12013KT 10/10 A2981 RMK A01 T00950095  RH  100%=      5-min Rain = 0
KCL2 230321Z 12012KT 10/10 A2981 RMK A01 T00950095  RH  100%=      5-min Rain = 0
KCL2 230322Z 12013KT 10/10 A2981 RMK A01 T00950095  RH  100%=      5-min Rain = 0
KCL2 230323Z 12015KT 10/10 A2981 RMK A01 T00950095  RH  100%=      5-min Rain = 0
KCL2 230324Z 13014KT 10/10 A2981 RMK A01 T00950095  RH  100%=      5-min Rain = 0
KCL2 230325Z 12013KT 10/10 A2981 RMK A01 T00950095  RH  100%=      5-min Rain = 0
KCL2 230326Z 12011KT 10/10 A2981 RMK A01 T00950095  RH  100%=      5-min Rain = 0
KCL2 230327Z 12013KT 10/10 A2981 RMK A01 T00950095  RH  100%=      5-min Rain = 0
KCL2 230328Z 12013KT 09/09 A2982 RMK A01 T00940094  RH  100%=      5-min Rain = 0
KCL2 230329Z 12013KT 09/09 A2982 RMK A01 T00940094  RH  100%=      5-min Rain = 0
KCL2 230330Z 12011KT 10/10 A2981 RMK A01 T00950095  RH  100%=      5-min Rain = 0
KCL2 230331Z 12013KT 10/10 A2981 RMK A01 T00950095  RH  100%=      5-min Rain = 0
KCL2 230332Z 12014KT 10/10 A2981 RMK A01 T00950095  RH  100%=      5-min Rain = 0
KCL2 230333Z 12011KT 10/10 A2981 RMK A01 T00950095  RH  100%=      5-min Rain = 0
KCL2 230334Z 12010KT 10/10 A2981 RMK A01 T00950095  RH  100%=      5-min Rain = 0
KCL2 230335Z 12014KT 10/10 A2981 RMK A01 T00950095  RH  100%=      5-min Rain = 0
KCL2 230336Z 12012KT 10/10 A2981 RMK A01 T00950095  RH  100%=      5-min Rain = 0
KCL2 230337Z 12012KT 10/10 A2981 RMK A01 T00950095  RH  100%=      5-min Rain = 0
KCL2 230338Z 12013KT 10/10 A2981 RMK A01 T00950095  RH  100%=      5-min Rain = 0
KCL2 230339Z 11011KT 10/10 A2981 RMK A01 T00950095  RH  100%=      5-min Rain = 0
KCL2 230340Z 11009KT 10/10 A2981 RMK A01 T00950095  RH  100%=      5-min Rain = 0
KCL2 230341Z 12010KT 10/10 A2981 RMK A01 T00950095  RH  100%=      5-min Rain = 0
KCL2 230342Z 12012KT 10/10 A2981 RMK A01 T00950095  RH  100%=      5-min Rain = 0
KCL2 230343Z 12012KT 10/10 A2981 RMK A01 T00950095  RH  100%=      5-min Rain = 0
KCL2 230344Z 12014KT 10/10 A298 RMK A01 T00950095  RH  100%=      5-min Rain = 0
KCL2 230345Z 12012KT 10/10 A298 RMK A01 T00950095  RH  100%=      5-min Rain = 0
KCL2 230346Z 11011G16KT 10/10 A298 RMK A01 T00950095  RH  100%=      5-min Rain = 0
KCL2 230347Z 12012KT 10/10 A298 RMK A01 T00950095  RH  100%=      5-min Rain = 0
KCL2 230348Z 12012KT 10/10 A298 RMK A01 T00950095  RH  100%=      5-min Rain = 0
KCL2 230349Z 12013G18KT 10/10 A298 RMK A01 T00950095  RH  100%=      5-min Rain = 0
KCL2 230350Z 12012G17KT 10/10 A298 RMK A01 T00950095  RH  100%=      5-min Rain = 0
KCL2 230351Z 13012KT 10/10 A298 RMK A01 T00950095  RH  100%=      5-min Rain = 0
KCL2 230352Z 12013G18KT 10/10 A298 RMK A01 T00950095  RH  100%=      5-min Rain = 0
KCL2 230353Z 12012KT 10/10 A298 RMK A01 T00950095  RH  100%=      5-min Rain = 0
KCL2 230354Z 12011KT 10/10 A298 RMK A01 T00950095  RH  100%=      5-min Rain = 0
KCL2 230355Z 12013KT 10/10 A298 RMK A01 T00950095  RH  100%=      5-min Rain = 0
KCL2 230356Z 12012KT 10/10 A298 RMK A01 T00950095  RH  100%=      5-min Rain = 0
KCL2 230357Z 13013KT 10/10 A298 RMK A01 T00950095  RH  100%=      5-min Rain = 0
KCL2 230358Z 12013G18KT 10/10 A298 RMK A01 T00950095  RH  100%=      5-min Rain = 0
KCL2 230359Z 12011KT 10/10 A298 RMK A01 T00950096  RH  100%=      5-min Rain = 0
KCL2 230400Z 12014KT 10/10 A298 RMK A01 T00950096  RH  100%=      5-min Rain = 0
KCL2 230401Z 13014KT 10/10 A298 RMK A01 T00950095  RH  100%=      5-min Rain = 0
KCL2 230402Z 13013KT 10/10 A298 RMK A01 T00960096  RH  100%=      5-min Rain = 0
KCL2 230403Z 12012KT 10/10 A298 RMK A01 T00960096  RH  100%=      5-min Rain = 0
KCL2 230404Z 12013KT 10/10 A298 RMK A01 T00950095  RH  100%=      5-min Rain = 0
KCL2 230405Z 12012KT 10/10 A298 RMK A01 T00950095  RH  100%=      5-min Rain = 0
KCL2 230406Z 13013KT 10/10 A298 RMK A01 T00960096  RH  100%=      5-min Rain = 0
KCL2 230407Z 12013KT 10/10 A298 RMK A01 T00960096  RH  100%=      5-min Rain = 0
KCL2 230408Z 13012KT 10/10 A298 RMK A01 T00960096  RH  100%=      5-min Rain = 0
KCL2 230409Z 13012KT 10/10 A298 RMK A01 T00960096  RH  100%=      5-min Rain = 0
KCL2 230410Z 13013KT 10/10 A298 RMK A01 T00960096  RH  100%=      5-min Rain = 0
KCL2 230411Z 13012G17KT 10/10 A2979 RMK A01 T00960096  RH  100%=      5-min Rain = 0
KCL2 230412Z 12013KT 10/10 A2979 RMK A01 T00960096  RH  100%=      5-min Rain = 0
KCL2 230413Z 13013KT 10/10 A2979 RMK A01 T00970097  RH  100%=      5-min Rain = 0
KCL2 230414Z 13013KT 10/10 A2979 RMK A01 T00970097  RH  100%=      5-min Rain = 0
KCL2 230415Z 13010G15KT 10/10 A2979 RMK A01 T00970097  RH  100%=      5-min Rain = 0
KCL2 230416Z 13014KT 10/10 A2979 RMK A01 T00970097  RH  100%=      5-min Rain = 0
KCL2 230417Z 13013KT 10/10 A2979 RMK A01 T00970097  RH  100%=      5-min Rain = 0
KCL2 230418Z 13013KT 10/10 A2979 RMK A01 T00970098  RH  100%=      5-min Rain = 0
KCL2 230419Z 13011KT 10/10 A2979 RMK A01 T00970097  RH  100%=      5-min Rain = 0
KCL2 230420Z 13012KT 10/10 A2979 RMK A01 T00970097  RH  100%=      5-min Rain = 0
KCL2 230421Z 13012KT 10/10 A2979 RMK A01 T00970097  RH  100%=      5-min Rain = 0
KCL2 230422Z 13012KT 10/10 A2978 RMK A01 T00970097  RH  100%=      5-min Rain = 0
KCL2 230423Z 13013G18KT 10/10 A2978 RMK A01 T00980098  RH  100%=      5-min Rain = 0
KCL2 230424Z 13015KT 10/10 A2978 RMK A01 T00980098  RH  100%=      5-min Rain = 0
KCL2 230425Z 13014KT 10/10 A2978 RMK A01 T00990099  RH  100%=      5-min Rain = 0
KCL2 230426Z 13013KT 10/10 A2978 RMK A01 T00990099  RH  100%=      5-min Rain = 0
KCL2 230427Z 13016KT 10/10 A2978 RMK A01 T00990100  RH  100%=      5-min Rain = 0
KCL2 230428Z 14012G18KT 10/10 A2978 RMK A01 T01000100  RH  100%=      5-min Rain = 0
KCL2 230429Z 14015KT 10/10 A2978 RMK A01 T01000100  RH  100%=      5-min Rain = 0
KCL2 230430Z 13013KT 10/10 A2978 RMK A01 T01000100  RH  100%=      5-min Rain = 0
KCL2 230431Z 13012KT 10/10 A2978 RMK A01 T01000100  RH  100%=      5-min Rain = 0
KCL2 230432Z 13015KT 10/10 A2978 RMK A01 T01000100  RH  100%=      5-min Rain = 0
KCL2 230433Z 14015KT 10/10 A2978 RMK A01 T01000100  RH  100%=      5-min Rain = 0
KCL2 230434Z 13014KT 10/10 A2978 RMK A01 T01000100  RH  100%=      5-min Rain = 0
KCL2 230435Z 14015KT 10/10 A2977 RMK A01 T01000100  RH  100%=      5-min Rain = 0
KCL2 230436Z 14014KT 10/10 A2977 RMK A01 T01000100  RH  100%=      5-min Rain = 0
KCL2 230437Z 14016KT 10/10 A2977 RMK A01 T01010101  RH  100%=      5-min Rain = 0
KCL2 230438Z 13014KT 10/10 A2977 RMK A01 T01010101  RH  100%=      5-min Rain = 0
KCL2 230439Z 14015KT 10/10 A2977 RMK A01 T01010101  RH  100%=      5-min Rain = 0
KCL2 230440Z 13015KT 10/10 A2977 RMK A01 T01010101  RH  100%=      5-min Rain = 0
KCL2 230441Z 14010KT 10/10 A2977 RMK A01 T01010101  RH  100%=      5-min Rain = 0
KCL2 230442Z 14015KT 10/10 A2977 RMK A01 T01010101  RH  100%=      5-min Rain = 0
KCL2 230443Z 14012KT 10/10 A2977 RMK A01 T01010101  RH  100%=      5-min Rain = 0
KCL2 230444Z 14012KT 10/10 A2977 RMK A01 T01010101  RH  100%=      5-min Rain = 0
KCL2 230445Z 14012G19KT 10/10 A2977 RMK A01 T01010101  RH  100%=      5-min Rain = 0
KCL2 230446Z 14015KT 10/10 A2978 RMK A01 T01020102  RH  100%=      5-min Rain = 0
KCL2 230447Z 14014KT 10/10 A2977 RMK A01 T01010101  RH  100%=      5-min Rain = 0
KCL2 230448Z 13012KT 10/10 A2978 RMK A01 T01010101  RH  100%=      5-min Rain = 0
KCL2 230449Z 14010G15KT 10/10 A2977 RMK A01 T01010102  RH  100%=      5-min Rain = 0
KCL2 230450Z 13012KT 10/10 A2977 RMK A01 T01020102  RH  100%=      5-min Rain = 0
KCL2 230451Z 13014KT 10/10 A2977 RMK A01 T01010101  RH  100%=      5-min Rain = 0
KCL2 230452Z 13012KT 10/10 A2977 RMK A01 T01020102  RH  100%=      5-min Rain = 0
KCL2 230453Z 13014KT 10/10 A2977 RMK A01 T01020102  RH  100%=      5-min Rain = 0
KCL2 230454Z 13012KT 10/10 A2977 RMK A01 T01010101  RH  100%=      5-min Rain = 0
KCL2 230455Z 13014KT 10/10 A2977 RMK A01 T01010101  RH  100%=      5-min Rain = 0
KCL2 230456Z 13014KT 10/10 A2977 RMK A01 T01010101  RH  100%=      5-min Rain = 0
KCL2 230457Z 13014KT 10/10 A2977 RMK A01 T01010101  RH  100%=      5-min Rain = 0
KCL2 230458Z 12014KT 10/10 A2977 RMK A01 T01010101  RH  100%=      5-min Rain = 0
KCL2 230459Z 12015KT 10/10 A2977 RMK A01 T01010101  RH  100%=      5-min Rain = 0
KCL2 230500Z 13013KT 10/10 A2977 RMK A01 T01010101  RH  100%=      5-min Rain = 0
KCL2 230501Z 13014KT 10/10 A2977 RMK A01 T01010101  RH  100%=      5-min Rain = 0
KCL2 230502Z 14015KT 10/10 A2977 RMK A01 T01010101  RH  100%=      5-min Rain = 0
KCL2 230503Z 13015KT 10/10 A2977 RMK A01 T01010101  RH  100%=      5-min Rain = 0
KCL2 230504Z 14013KT 10/10 A2977 RMK A01 T01010101  RH  100%=      5-min Rain = 0
KCL2 230505Z 14016KT 10/10 A2977 RMK A01 T01010101  RH  100%=      5-min Rain = 0
KCL2 230506Z 13015KT 10/10 A2977 RMK A01 T01000100  RH  100%=      5-min Rain = 0
KCL2 230507Z 13016G23KT 10/10 A2977 RMK A01 T01000100  RH  100%=      5-min Rain = 0
KCL2 230508Z 13012KT 10/10 A2977 RMK A01 T01000100  RH  100%=      5-min Rain = 0
KCL2 230509Z 12012KT 10/10 A2977 RMK A01 T01000100  RH  100%=      5-min Rain = 0
KCL2 230510Z 14013KT 10/10 A2977 RMK A01 T01000100  RH  100%=      5-min Rain = 0
KCL2 230511Z 13012KT 10/10 A2977 RMK A01 T01000100  RH  100%=      5-min Rain = 0
KCL2 230512Z 13012KT 10/10 A2977 RMK A01 T01000100  RH  100%=      5-min Rain = 0
KCL2 230513Z 13013KT 10/10 A2977 RMK A01 T01000100  RH  100%=      5-min Rain = 0
KCL2 230514Z 12014KT 10/10 A2977 RMK A01 T01000100  RH  100%=      5-min Rain = 0
KCL2 230515Z 13013KT 10/10 A2977 RMK A01 T01000100  RH  100%=      5-min Rain = 0
KCL2 230516Z 13012KT 10/10 A2977 RMK A01 T01000100  RH  100%=      5-min Rain = 0
KCL2 230517Z 13013KT 10/10 A2977 RMK A01 T00990099  RH  100%=      5-min Rain = 0
KCL2 230518Z 13013KT 10/10 A2977 RMK A01 T00990099  RH  100%=      5-min Rain = 0
KCL2 230519Z 12013KT 10/10 A2977 RMK A01 T00990099  RH  100%=      5-min Rain = 0
KCL2 230520Z 13011KT 10/10 A2977 RMK A01 T00990099  RH  100%=      5-min Rain = 0
KCL2 230521Z 13011KT 10/10 A2977 RMK A01 T00990099  RH  100%=      5-min Rain = 0
KCL2 230522Z 13011KT 10/10 A2977 RMK A01 T00990099  RH  100%=      5-min Rain = 0
KCL2 230523Z 13013KT 10/10 A2977 RMK A01 T00990099  RH  100%=      5-min Rain = 0
KCL2 230524Z 13013KT 10/10 A2976 RMK A01 T00990099  RH  100%=      5-min Rain = 0
KCL2 230525Z 14011KT 10/10 A2976 RMK A01 T00990099  RH  100%=      5-min Rain = 0
KCL2 230526Z 14013KT 10/10 A2976 RMK A01 T00990099  RH  100%=      5-min Rain = 0
KCL2 230527Z 13011KT 10/10 A2976 RMK A01 T00990099  RH  100%=      5-min Rain = 0
KCL2 230528Z 14011KT 10/10 A2976 RMK A01 T00990099  RH  100%=      5-min Rain = 0
KCL2 230529Z 13011KT 10/10 A2976 RMK A01 T00990099  RH  100%=      5-min Rain = 0
KCL2 230530Z 13012KT 10/10 A2976 RMK A01 T00990099  RH  100%=      5-min Rain = 0
KCL2 230531Z 14013KT 10/10 A2976 RMK A01 T00990099  RH  100%=      5-min Rain = 0
KCL2 230532Z 13014KT 10/10 A2976 RMK A01 T00990099  RH  100%=      5-min Rain = 0
KCL2 230533Z 13013G19KT 10/10 A2976 RMK A01 T00990099  RH  100%=      5-min Rain = 0
KCL2 230534Z 13014KT 10/10 A2976 RMK A01 T00990099  RH  100%=      5-min Rain = 0
KCL2 230535Z 13014KT 10/10 A2976 RMK A01 T00980099  RH  100%=      5-min Rain = 0
KCL2 230536Z 14016KT 10/10 A2975 RMK A01 T00990099  RH  100%=      5-min Rain = 0
KCL2 230537Z 13012G17KT 10/10 A2975 RMK A01 T00990099  RH  100%=      5-min Rain = 0
KCL2 230538Z 13013KT 10/10 A2975 RMK A01 T00990099  RH  100%=      5-min Rain = 0
KCL2 230539Z 14013KT 10/10 A2975 RMK A01 T00990099  RH  100%=      5-min Rain = 0
KCL2 230540Z 14014KT 10/10 A2975 RMK A01 T00980099  RH  100%=      5-min Rain = 0
KCL2 230541Z 14012KT 10/10 A2975 RMK A01 T00990099  RH  100%=      5-min Rain = 0
KCL2 230542Z 14015KT 10/10 A2975 RMK A01 T00990099  RH  100%=      5-min Rain = 0
KCL2 230543Z 14014G21KT 10/10 A2975 RMK A01 T00990099  RH  100%=      5-min Rain = 0
KCL2 230544Z 14015KT 10/10 A2975 RMK A01 T00990099  RH  100%=      5-min Rain = 0
KCL2 230545Z 13013KT 10/10 A2975 RMK A01 T00980099  RH  100%=      5-min Rain = 0
KCL2 230546Z 13013G18KT 10/10 A2974 RMK A01 T00990099  RH  100%=      5-min Rain = 0
KCL2 230547Z 14014KT 10/10 A2974 RMK A01 T00990099  RH  100%=      5-min Rain = 0
KCL2 230548Z 14016KT 10/10 A2974 RMK A01 T00990099  RH  100%=      5-min Rain = 0
KCL2 230549Z 14016G23KT 10/10 A2974 RMK A01 T00990099  RH  100%=      5-min Rain = 0
KCL2 230550Z 14018KT 10/10 A2974 RMK A01 T00990099  RH  100%=      5-min Rain = 0
KCL2 230551Z 14014KT 10/10 A2974 RMK A01 T00990099  RH  100%=      5-min Rain = 0
KCL2 230552Z 15014KT 10/10 A2974 RMK A01 T00990099  RH  100%=      5-min Rain = 0
KCL2 230553Z 14014KT 10/10 A2974 RMK A01 T00980099  RH  100%=      5-min Rain = 0
KCL2 230554Z 14016KT 10/10 A2974 RMK A01 T00990099  RH  100%=      5-min Rain = 0
KCL2 230555Z 14016KT 10/10 A2974 RMK A01 T00990099  RH  100%=      5-min Rain = 0
KCL2 230556Z 15014KT 10/10 A2974 RMK A01 T00990099  RH  100%=      5-min Rain = 0
KCL2 230557Z 15013KT 10/10 A2974 RMK A01 T00990099  RH  100%=      5-min Rain = 0
KCL2 230558Z 14015G22KT 10/10 A2974 RMK A01 T00990099  RH  100%=      5-min Rain = 0
KCL2 230559Z 14018KT 10/10 A2974 RMK A01 T00990099  RH  100%=      5-min Rain = 0

Page generated in 0.1265 seconds.